CCA770 KLAX-ZGSZ

Flight info

Callsign CCA770
Flight time N/A
Altitude 28000
Route SUMMR2 SCTRR DCT ENI DCT BOXER/N0502F300 B453 MDO/N0492F320 J804R TED DCT NODLE R220 NANZA/N0488F330 R220 NIKLL/N0497F340 R220 NOGAL/N0488F350 R220 NANAC/N0496F340 R220 BEKEN/N0490F360 R220 IXE Y88 KCC Y28 ISAKY Y592 ONIKU A593 LAMEN/K0913F360 A593 AKARA/K0913S1100 A593 PUD A599 NXD W131 AKDIM A470 DUBGO W134 ELNEX A599 PLT W19 ATKAV W20 SALIV R473 NOLON W90 POU W7 SAREX
Aircraft B77W/H-SDE1E2E3FGHIJ2J3J4J5M1RWXY/LB1D1

Departure

Time N/A
Airport Los Angeles International Airport (KLAX)

Arrival

Time 2026-05-07 13:51
Airport Shenzhen Bao'an International Airport (ZGSZ)
Time Latitude Longitude Altitude Speed Heading
2026-05-06 23:55 40.64428 -124.48966 30239 ft 481 kts 329°
2026-05-06 23:55 40.67299 -124.51222 30243 ft 481 kts 329°
2026-05-06 23:55 40.73047 -124.55744 30250 ft 481 kts 329°
2026-05-06 23:56 40.78786 -124.60269 30253 ft 481 kts 329°
2026-05-06 23:56 40.84531 -124.64807 30249 ft 481 kts 329°
2026-05-06 23:57 40.90267 -124.69348 30244 ft 481 kts 329°
2026-05-06 23:57 40.96010 -124.73904 30246 ft 481 kts 329°
2026-05-06 23:58 41.01752 -124.78467 30247 ft 482 kts 329°
2026-05-06 23:58 41.07501 -124.83046 30240 ft 482 kts 329°
2026-05-06 23:59 41.13247 -124.87632 30244 ft 482 kts 329°
2026-05-06 23:59 41.18995 -124.92230 30242 ft 482 kts 329°
2026-05-07 00:00 41.24706 -124.96806 30247 ft 483 kts 329°
2026-05-07 00:00 41.30452 -125.01421 30245 ft 483 kts 329°
2026-05-07 00:01 41.36202 -125.06048 30253 ft 483 kts 329°
2026-05-07 00:01 41.41950 -125.10684 30245 ft 483 kts 329°
2026-05-07 00:02 41.47707 -125.15336 30254 ft 483 kts 329°
2026-05-07 00:02 41.53454 -125.19990 30258 ft 483 kts 329°
2026-05-07 00:03 41.59208 -125.24660 30244 ft 484 kts 329°
2026-05-07 00:03 41.64961 -125.29339 30258 ft 484 kts 329°
2026-05-07 00:04 41.70717 -125.34030 30246 ft 485 kts 329°
2026-05-07 00:04 41.76474 -125.38732 30245 ft 485 kts 329°
2026-05-07 00:05 41.82229 -125.43442 30254 ft 485 kts 329°
2026-05-07 00:05 41.87985 -125.48164 30250 ft 485 kts 329°
2026-05-07 00:06 41.93745 -125.52898 30252 ft 485 kts 329°
2026-05-07 00:06 41.99496 -125.57636 30255 ft 485 kts 329°
2026-05-07 00:07 42.05243 -125.62379 30253 ft 485 kts 329°
2026-05-07 00:07 42.10990 -125.67134 30252 ft 485 kts 329°
2026-05-07 00:08 42.16727 -125.71890 30254 ft 485 kts 329°
2026-05-07 00:08 42.22472 -125.76664 30249 ft 485 kts 329°
2026-05-07 00:09 42.28174 -125.81412 30262 ft 485 kts 329°
2026-05-07 00:09 42.33924 -125.86210 30261 ft 486 kts 329°
2026-05-07 00:10 42.39674 -125.91019 30256 ft 486 kts 328°
2026-05-07 00:10 42.45429 -125.95842 30258 ft 487 kts 328°
2026-05-07 00:11 42.51185 -126.00677 30261 ft 487 kts 328°
2026-05-07 00:11 42.56942 -126.05524 30268 ft 487 kts 328°
2026-05-07 00:12 42.62692 -126.10376 30256 ft 487 kts 328°
2026-05-07 00:12 42.68436 -126.15232 30265 ft 486 kts 328°
2026-05-07 00:13 42.74283 -126.19802 30271 ft 485 kts 334°
2026-05-07 00:13 42.80369 -126.23737 30258 ft 484 kts 334°
2026-05-07 00:14 42.86414 -126.27621 30273 ft 483 kts 334°
2026-05-07 00:14 42.92509 -126.31591 30267 ft 482 kts 334°
2026-05-07 00:15 42.98510 -126.35533 30262 ft 481 kts 333°
2026-05-07 00:15 43.04540 -126.39505 30266 ft 481 kts 333°
2026-05-07 00:16 43.10562 -126.43479 30265 ft 481 kts 333°
2026-05-07 00:16 43.16589 -126.47464 30267 ft 481 kts 333°
2026-05-07 00:17 43.22612 -126.51454 30270 ft 481 kts 333°
2026-05-07 00:17 43.28636 -126.55455 30269 ft 481 kts 333°
2026-05-07 00:18 43.34666 -126.59468 30270 ft 481 kts 333°
2026-05-07 00:18 43.40693 -126.63489 30267 ft 482 kts 333°
2026-05-07 00:19 43.46721 -126.67521 30265 ft 482 kts 333°
2026-05-07 00:19 43.52735 -126.71572 30274 ft 481 kts 333°
2026-05-07 00:20 43.58749 -126.75636 30270 ft 481 kts 333°
2026-05-07 00:20 43.64754 -126.79702 30273 ft 480 kts 333°
2026-05-07 00:21 43.70752 -126.83772 30277 ft 480 kts 333°
2026-05-07 00:21 43.76739 -126.87842 30275 ft 479 kts 333°
2026-05-07 00:22 43.82720 -126.91917 30276 ft 479 kts 332°
2026-05-07 00:22 43.88710 -126.96007 30277 ft 479 kts 332°
2026-05-07 00:23 43.94651 -127.00074 30281 ft 480 kts 332°
2026-05-07 00:23 44.00631 -127.04176 30276 ft 479 kts 332°
2026-05-07 00:24 44.06610 -127.08287 30283 ft 479 kts 332°
2026-05-07 00:24 44.12590 -127.12408 30281 ft 479 kts 332°
2026-05-07 00:25 44.18565 -127.16535 30286 ft 479 kts 332°
2026-05-07 00:25 44.24536 -127.20668 30286 ft 479 kts 332°
2026-05-07 00:26 44.30505 -127.24810 30283 ft 479 kts 332°
2026-05-07 00:26 44.36474 -127.28960 30292 ft 479 kts 332°
2026-05-07 00:27 44.42429 -127.33111 30288 ft 478 kts 332°
2026-05-07 00:27 44.48388 -127.37275 30286 ft 478 kts 331°
2026-05-07 00:28 44.54342 -127.41444 30293 ft 478 kts 331°
2026-05-07 00:28 44.60290 -127.45618 30294 ft 478 kts 331°
2026-05-07 00:29 44.66236 -127.49801 30294 ft 478 kts 331°
2026-05-07 00:30 44.78078 -127.58159 30300 ft 477 kts 331°
2026-05-07 00:30 44.84007 -127.62359 30299 ft 477 kts 331°
2026-05-07 00:31 44.89933 -127.66567 30302 ft 477 kts 331°
2026-05-07 00:31 44.95857 -127.70782 30302 ft 477 kts 330°
2026-05-07 00:32 45.01775 -127.75003 30305 ft 476 kts 330°
2026-05-07 00:32 45.07691 -127.79233 30309 ft 476 kts 330°
2026-05-07 00:33 45.13602 -127.83469 30307 ft 476 kts 330°
2026-05-07 00:33 45.19515 -127.87717 30306 ft 476 kts 330°
2026-05-07 00:34 45.24423 -127.91249 30311 ft 476 kts 330°
2026-05-07 00:34 45.30328 -127.95509 30312 ft 476 kts 330°
2026-05-07 00:35 45.36234 -127.99779 30318 ft 476 kts 330°
2026-05-07 00:35 45.42139 -128.04060 30314 ft 476 kts 330°
2026-05-07 00:36 45.48043 -128.08349 30314 ft 476 kts 330°
2026-05-07 00:36 45.53944 -128.12646 30316 ft 476 kts 330°
2026-05-07 00:37 45.59845 -128.16954 30316 ft 476 kts 330°
2026-05-07 00:37 45.65739 -128.21266 30319 ft 476 kts 329°
2026-05-07 00:38 45.71628 -128.25585 30319 ft 476 kts 329°
2026-05-07 00:38 45.77516 -128.29914 30322 ft 475 kts 329°
2026-05-07 00:39 45.83396 -128.34247 30322 ft 475 kts 329°
2026-05-07 00:39 45.89235 -128.38561 30324 ft 475 kts 329°
2026-05-07 00:40 45.95142 -128.42935 30320 ft 475 kts 329°
2026-05-07 00:40 46.01010 -128.47290 30323 ft 474 kts 329°
2026-05-07 00:41 46.06834 -128.51624 30322 ft 474 kts 329°
2026-05-07 00:41 46.12698 -128.55998 30326 ft 474 kts 329°
2026-05-07 00:42 46.18555 -128.60376 30326 ft 474 kts 329°
2026-05-07 00:42 46.24415 -128.64768 30329 ft 475 kts 329°
2026-05-07 00:43 46.30273 -128.69169 30323 ft 475 kts 329°
2026-05-07 00:43 46.36141 -128.73589 30328 ft 475 kts 328°
2026-05-07 00:44 46.42006 -128.78016 30332 ft 475 kts 328°
2026-05-07 00:44 46.47867 -128.82452 30333 ft 475 kts 328°
2026-05-07 00:45 46.53727 -128.86897 30332 ft 475 kts 328°
2026-05-07 00:45 46.59585 -128.91352 30334 ft 475 kts 328°
2026-05-07 00:46 46.65407 -128.95791 30342 ft 475 kts 328°
2026-05-07 00:46 46.71261 -129.00264 30333 ft 475 kts 328°
2026-05-07 00:47 46.77110 -129.04745 30345 ft 475 kts 328°
2026-05-07 00:47 46.82952 -129.09232 30335 ft 474 kts 328°
2026-05-07 00:48 46.88793 -129.13729 30336 ft 474 kts 328°
2026-05-07 00:48 46.94625 -129.18230 30339 ft 474 kts 328°
2026-05-07 00:49 47.00456 -129.22742 30337 ft 474 kts 328°
2026-05-07 00:49 47.06281 -129.27260 30344 ft 474 kts 328°
2026-05-07 00:50 47.12107 -129.31791 30343 ft 474 kts 328°
2026-05-07 00:50 47.17926 -129.36327 30344 ft 474 kts 328°
2026-05-07 00:51 47.23745 -129.40875 30350 ft 473 kts 328°
2026-05-07 00:51 47.29564 -129.45434 30352 ft 473 kts 328°
2026-05-07 00:52 47.35335 -129.49967 30350 ft 473 kts 327°
2026-05-07 00:52 47.41147 -129.54544 30351 ft 473 kts 327°
2026-05-07 00:53 47.46952 -129.59126 30347 ft 473 kts 327°
2026-05-07 00:53 47.52754 -129.63719 30353 ft 473 kts 327°
2026-05-07 00:54 47.58564 -129.68328 30350 ft 474 kts 327°
2026-05-07 00:54 47.64373 -129.72949 30351 ft 474 kts 327°
2026-05-07 00:55 47.70185 -129.77583 30350 ft 474 kts 327°
2026-05-07 00:55 47.76008 -129.82229 30351 ft 475 kts 327°
2026-05-07 00:56 47.81824 -129.86879 30350 ft 475 kts 327°
2026-05-07 00:56 47.87646 -129.91547 30354 ft 475 kts 327°
2026-05-07 00:57 47.93468 -129.96227 30354 ft 475 kts 327°
2026-05-07 00:57 47.99286 -130.00917 30353 ft 475 kts 327°
2026-05-07 00:58 48.05100 -130.05617 30358 ft 475 kts 327°
2026-05-07 00:58 48.10873 -130.10295 30353 ft 475 kts 327°
2026-05-07 00:59 48.19584 -130.17376 30361 ft 475 kts 327°
2026-05-07 01:00 48.25389 -130.22108 30361 ft 474 kts 327°
2026-05-07 01:00 48.31189 -130.26844 30361 ft 474 kts 326°
2026-05-07 01:01 48.36984 -130.31587 30363 ft 474 kts 326°
2026-05-07 01:01 48.42769 -130.36337 30359 ft 474 kts 326°
2026-05-07 01:02 48.48549 -130.41095 30358 ft 474 kts 326°
2026-05-07 01:02 48.54284 -130.45829 30371 ft 473 kts 326°
2026-05-07 01:03 48.60063 -130.50611 30362 ft 474 kts 326°
2026-05-07 01:03 48.65843 -130.55407 30371 ft 474 kts 326°
2026-05-07 01:04 48.71629 -130.60219 30365 ft 474 kts 326°
2026-05-07 01:04 48.77412 -130.65043 30372 ft 474 kts 326°
2026-05-07 01:05 48.83192 -130.69877 30369 ft 474 kts 326°
2026-05-07 01:05 48.88979 -130.74730 30362 ft 475 kts 326°
2026-05-07 01:06 48.94758 -130.79588 30369 ft 475 kts 325°
2026-05-07 01:06 49.00535 -130.84461 30369 ft 475 kts 325°
2026-05-07 01:07 49.06313 -130.89352 30368 ft 475 kts 325°
2026-05-07 01:07 49.12041 -130.94216 30369 ft 474 kts 325°
2026-05-07 01:08 49.17807 -130.99123 30366 ft 474 kts 325°
2026-05-07 01:08 49.23563 -131.04036 30371 ft 474 kts 325°
2026-05-07 01:09 49.29326 -131.08968 30376 ft 474 kts 325°
2026-05-07 01:09 49.35080 -131.13905 30375 ft 474 kts 324°
2026-05-07 01:10 49.40837 -131.18857 30374 ft 474 kts 324°
2026-05-07 01:10 49.46588 -131.23820 30377 ft 474 kts 324°
2026-05-07 01:11 49.52336 -131.28792 30374 ft 474 kts 324°
2026-05-07 01:11 49.58088 -131.33781 30372 ft 474 kts 324°
2026-05-07 01:12 49.63830 -131.38775 30375 ft 474 kts 324°
2026-05-07 01:12 49.69572 -131.43784 30373 ft 474 kts 324°
2026-05-07 01:13 49.75312 -131.48803 30376 ft 474 kts 324°
2026-05-07 01:13 49.81047 -131.53833 30374 ft 474 kts 324°
2026-05-07 01:14 49.86778 -131.58873 30381 ft 474 kts 324°
2026-05-07 01:14 49.92512 -131.63930 30379 ft 474 kts 324°
2026-05-07 01:15 49.98204 -131.68963 30366 ft 474 kts 324°
2026-05-07 01:15 50.03931 -131.74054 30379 ft 474 kts 324°
2026-05-07 01:16 50.09645 -131.79180 30377 ft 474 kts 324°
2026-05-07 01:16 50.15364 -131.84323 30380 ft 475 kts 324°
2026-05-07 01:17 50.21088 -131.89491 30380 ft 475 kts 323°
2026-05-07 01:17 50.26691 -131.94906 30380 ft 474 kts 322°
2026-05-07 01:18 50.32256 -132.00447 30375 ft 474 kts 322°
2026-05-07 01:18 50.37830 -132.05976 30380 ft 475 kts 322°
2026-05-07 01:19 50.43431 -132.11507 30383 ft 475 kts 322°
2026-05-07 01:19 50.48990 -132.17003 30383 ft 475 kts 322°
2026-05-07 01:20 50.54582 -132.22546 30381 ft 475 kts 322°
2026-05-07 01:20 50.60176 -132.28109 30378 ft 475 kts 322°
2026-05-07 01:21 50.65757 -132.33677 30381 ft 475 kts 322°
2026-05-07 01:21 50.71336 -132.39258 30395 ft 475 kts 322°
2026-05-07 01:22 50.76891 -132.44831 30382 ft 474 kts 322°
2026-05-07 01:22 50.82473 -132.50447 30378 ft 474 kts 322°
2026-05-07 01:23 50.88025 -132.56049 30372 ft 473 kts 322°
2026-05-07 01:23 50.93569 -132.61661 30382 ft 472 kts 322°
2026-05-07 01:24 50.99101 -132.67274 30385 ft 471 kts 322°
2026-05-07 01:24 51.04585 -132.72857 30385 ft 471 kts 322°
2026-05-07 01:25 51.10087 -132.78482 30384 ft 470 kts 322°
2026-05-07 01:25 51.15582 -132.84117 30385 ft 469 kts 322°
2026-05-07 01:26 51.21064 -132.89753 30388 ft 469 kts 322°
2026-05-07 01:26 51.26538 -132.95398 30384 ft 468 kts 322°
2026-05-07 01:27 51.31077 -133.00090 30385 ft 467 kts 322°
2026-05-07 01:27 51.36528 -133.05740 30386 ft 466 kts 322°
2026-05-07 01:28 51.41969 -133.11396 30383 ft 466 kts 321°
2026-05-07 01:28 51.47395 -133.17053 30383 ft 465 kts 321°
2026-05-07 01:29 51.52808 -133.22713 30380 ft 464 kts 321°
2026-05-07 01:29 51.58218 -133.28385 30386 ft 463 kts 321°
2026-05-07 01:30 51.63609 -133.34054 30382 ft 463 kts 321°
2026-05-07 01:30 51.68989 -133.39729 30380 ft 462 kts 321°
2026-05-07 01:31 51.74364 -133.45415 30378 ft 462 kts 321°
2026-05-07 01:31 51.79726 -133.51102 30384 ft 461 kts 321°
2026-05-07 01:32 51.85086 -133.56806 30385 ft 461 kts 321°
2026-05-07 01:32 51.90438 -133.62517 30379 ft 461 kts 320°
2026-05-07 01:33 51.95787 -133.68240 30377 ft 460 kts 320°
2026-05-07 01:33 52.01124 -133.73966 30377 ft 460 kts 320°
2026-05-07 01:34 52.06460 -133.79704 30380 ft 460 kts 320°
2026-05-07 01:34 52.11787 -133.85449 30385 ft 459 kts 320°
2026-05-07 01:35 52.17101 -133.91197 30377 ft 459 kts 320°
2026-05-07 01:35 52.22417 -133.96965 30379 ft 459 kts 320°
2026-05-07 01:36 52.27721 -134.02737 30382 ft 458 kts 320°
2026-05-07 01:36 52.33022 -134.08522 30381 ft 458 kts 320°
2026-05-07 01:37 52.38281 -134.14279 30367 ft 458 kts 320°
2026-05-07 01:37 52.43578 -134.20093 30375 ft 458 kts 320°
2026-05-07 01:38 52.48862 -134.25911 30376 ft 458 kts 319°
2026-05-07 01:38 52.54144 -134.31743 30375 ft 457 kts 319°
2026-05-07 01:39 52.59421 -134.37588 30377 ft 457 kts 319°
2026-05-07 01:39 52.64693 -134.43444 30378 ft 457 kts 319°
2026-05-07 01:40 52.69958 -134.49310 30378 ft 457 kts 319°
2026-05-07 01:40 52.75224 -134.55193 30377 ft 457 kts 319°
2026-05-07 01:41 52.80487 -134.61092 30379 ft 457 kts 319°
2026-05-07 01:41 52.85746 -134.67004 30374 ft 457 kts 319°
2026-05-07 01:42 52.90999 -134.72927 30378 ft 457 kts 319°
2026-05-07 01:42 52.96216 -134.78826 30381 ft 457 kts 319°
2026-05-07 01:43 53.01467 -134.84780 30373 ft 458 kts 318°
2026-05-07 01:43 53.06724 -134.90761 30370 ft 458 kts 318°
2026-05-07 01:44 53.11983 -134.96762 30375 ft 458 kts 318°
2026-05-07 01:44 53.17239 -135.02780 30374 ft 458 kts 318°
2026-05-07 01:45 53.22491 -135.08810 30374 ft 459 kts 318°
2026-05-07 01:45 53.27748 -135.14865 30375 ft 459 kts 318°
2026-05-07 01:46 53.33008 -135.20942 30369 ft 460 kts 318°
2026-05-07 01:46 53.38270 -135.27039 30376 ft 460 kts 318°
2026-05-07 01:47 53.43535 -135.33159 30372 ft 461 kts 318°
2026-05-07 01:47 53.48809 -135.39309 30373 ft 462 kts 318°
2026-05-07 01:48 53.54094 -135.45490 30371 ft 463 kts 318°
2026-05-07 01:48 53.59389 -135.51701 30370 ft 464 kts 318°
2026-05-07 01:49 53.64691 -135.57941 30369 ft 466 kts 318°
2026-05-07 01:49 53.70006 -135.64216 30365 ft 467 kts 318°
2026-05-07 01:50 53.75292 -135.70475 30366 ft 468 kts 318°
2026-05-07 01:50 53.80622 -135.76807 30362 ft 468 kts 318°
2026-05-07 01:51 53.85954 -135.83161 30366 ft 469 kts 318°
2026-05-07 01:51 53.91291 -135.89542 30364 ft 469 kts 318°
2026-05-07 01:52 53.96626 -135.95939 30368 ft 470 kts 318°
2026-05-07 01:52 54.01815 -136.02621 30367 ft 464 kts 312°
2026-05-07 01:53 54.06585 -136.09999 30366 ft 464 kts 311°
2026-05-07 01:53 54.11336 -136.17437 30357 ft 464 kts 311°
2026-05-07 01:54 54.16095 -136.24861 30354 ft 464 kts 311°
2026-05-07 01:54 54.20870 -136.32301 30350 ft 464 kts 311°
2026-05-07 01:55 54.25639 -136.39744 30358 ft 464 kts 311°
2026-05-07 01:55 54.30405 -136.47205 30352 ft 464 kts 311°
2026-05-07 01:56 54.35134 -136.54636 30355 ft 464 kts 311°
2026-05-07 01:56 54.39888 -136.62132 30353 ft 464 kts 311°
2026-05-07 01:57 54.44635 -136.69640 30354 ft 464 kts 311°
2026-05-07 01:57 54.49380 -136.77171 30353 ft 464 kts 311°
2026-05-07 01:58 54.54118 -136.84715 30350 ft 464 kts 311°
2026-05-07 01:58 54.58847 -136.92270 30350 ft 464 kts 311°
2026-05-07 01:59 54.63574 -136.99848 30344 ft 464 kts 311°
2026-05-07 01:59 54.68297 -137.07443 30345 ft 464 kts 310°
2026-05-07 02:00 54.73011 -137.15051 30338 ft 464 kts 310°
2026-05-07 02:00 54.77719 -137.22673 30343 ft 464 kts 310°
2026-05-07 02:01 54.82424 -137.30317 30341 ft 464 kts 310°
2026-05-07 02:01 54.87132 -137.37990 30334 ft 464 kts 310°
2026-05-07 02:02 54.91833 -137.45678 30337 ft 464 kts 310°
2026-05-07 02:02 54.96502 -137.53339 30341 ft 464 kts 310°
2026-05-07 02:03 55.01193 -137.61063 30334 ft 464 kts 310°
2026-05-07 02:03 55.05887 -137.68819 30327 ft 465 kts 310°
2026-05-07 02:04 55.10582 -137.76601 30327 ft 465 kts 310°
2026-05-07 02:04 55.15270 -137.84399 30322 ft 466 kts 310°
2026-05-07 02:05 55.19954 -137.92217 30322 ft 466 kts 310°
2026-05-07 02:05 55.24641 -138.00065 30321 ft 466 kts 310°
2026-05-07 02:06 55.29320 -138.07927 30325 ft 466 kts 309°
2026-05-07 02:06 55.33964 -138.15758 30318 ft 466 kts 309°
2026-05-07 02:07 55.38626 -138.23647 30314 ft 465 kts 309°
2026-05-07 02:07 55.45606 -138.35508 30310 ft 465 kts 309°
2026-05-07 02:08 55.50252 -138.43437 30312 ft 464 kts 309°
2026-05-07 02:08 55.54888 -138.51376 30309 ft 464 kts 309°
2026-05-07 02:09 55.59518 -138.59334 30307 ft 464 kts 309°
2026-05-07 02:09 55.64144 -138.67312 30306 ft 464 kts 309°
2026-05-07 02:10 55.68760 -138.75302 30304 ft 464 kts 309°
2026-05-07 02:10 55.73378 -138.83321 30305 ft 464 kts 309°
2026-05-07 02:11 55.77983 -138.91345 30304 ft 464 kts 309°
2026-05-07 02:11 55.82586 -138.99394 30301 ft 464 kts 309°
2026-05-07 02:12 55.87178 -139.07453 30309 ft 463 kts 308°
2026-05-07 02:12 55.91760 -139.15523 30291 ft 463 kts 308°
2026-05-07 02:13 55.96332 -139.23603 30302 ft 462 kts 308°
2026-05-07 02:13 56.00895 -139.31696 30291 ft 462 kts 308°
2026-05-07 02:14 56.05454 -139.39812 30288 ft 462 kts 308°
2026-05-07 02:14 56.09235 -139.46564 30294 ft 462 kts 308°
2026-05-07 02:15 56.13781 -139.54707 30286 ft 462 kts 308°
2026-05-07 02:15 56.18327 -139.62880 30285 ft 462 kts 308°
2026-05-07 02:16 56.22857 -139.71052 30282 ft 462 kts 308°
2026-05-07 02:16 56.27381 -139.79242 30281 ft 461 kts 308°
2026-05-07 02:17 56.31896 -139.87446 30280 ft 461 kts 308°
2026-05-07 02:17 56.36401 -139.95660 30278 ft 460 kts 308°
2026-05-07 02:18 56.40890 -140.03876 30273 ft 459 kts 308°
2026-05-07 02:18 56.45370 -140.12104 30271 ft 459 kts 308°
2026-05-07 02:19 56.49839 -140.20341 30267 ft 458 kts 307°
2026-05-07 02:19 56.54294 -140.28583 30264 ft 458 kts 307°
2026-05-07 02:20 56.58744 -140.36843 30264 ft 457 kts 307°
2026-05-07 02:20 56.63181 -140.45111 30262 ft 457 kts 307°
2026-05-07 02:21 56.67618 -140.53410 30554 ft 458 kts 307°
2026-05-07 02:21 56.69837 -140.57566 30919 ft 456 kts 307°
2026-05-07 02:21 56.72005 -140.61634 31279 ft 453 kts 307°
2026-05-07 02:22 56.74225 -140.65808 31616 ft 452 kts 307°
2026-05-07 02:22 56.76408 -140.69922 31897 ft 451 kts 307°
2026-05-07 02:22 56.78584 -140.74033 32151 ft 451 kts 307°
2026-05-07 02:22 56.80736 -140.78108 32191 ft 453 kts 307°
2026-05-07 02:23 56.85102 -140.86392 32233 ft 452 kts 307°
2026-05-07 02:23 56.89451 -140.94669 32255 ft 451 kts 307°
2026-05-07 02:24 56.93786 -141.02949 32240 ft 450 kts 307°
2026-05-07 02:24 56.98107 -141.11236 32246 ft 450 kts 307°
2026-05-07 02:25 57.02434 -141.19564 32246 ft 451 kts 307°
2026-05-07 02:25 57.06762 -141.27922 32245 ft 452 kts 307°
2026-05-07 02:26 57.11100 -141.36332 32242 ft 454 kts 307°
2026-05-07 02:26 57.15450 -141.44792 32236 ft 455 kts 307°
2026-05-07 02:27 57.19775 -141.53236 32232 ft 456 kts 307°
2026-05-07 02:27 57.24129 -141.61767 32232 ft 457 kts 307°
2026-05-07 02:28 57.28483 -141.70330 32231 ft 458 kts 307°
2026-05-07 02:28 57.32835 -141.78919 32227 ft 458 kts 307°
2026-05-07 02:29 57.37184 -141.87535 32220 ft 458 kts 307°
2026-05-07 02:29 57.41523 -141.96165 32219 ft 457 kts 307°
2026-05-07 02:30 57.45857 -142.04816 32221 ft 457 kts 307°
2026-05-07 02:30 57.50181 -142.13479 32222 ft 457 kts 307°
2026-05-07 02:31 57.54497 -142.22160 32204 ft 457 kts 307°
2026-05-07 02:31 57.58805 -142.30857 32202 ft 456 kts 307°
2026-05-07 02:32 57.63097 -142.39554 32205 ft 456 kts 307°
2026-05-07 02:32 57.67389 -142.48283 32201 ft 456 kts 307°
2026-05-07 02:33 57.71670 -142.57024 32202 ft 456 kts 307°
2026-05-07 02:33 57.75942 -142.65780 32199 ft 455 kts 307°
2026-05-07 02:34 57.80208 -142.74554 32196 ft 455 kts 307°
2026-05-07 02:34 57.84463 -142.83340 32193 ft 455 kts 307°
2026-05-07 02:35 57.88707 -142.92137 32191 ft 454 kts 307°
2026-05-07 02:35 57.92940 -143.00944 32186 ft 454 kts 307°
2026-05-07 02:36 57.97165 -143.09769 32189 ft 453 kts 306°
2026-05-07 02:36 58.01380 -143.18606 32185 ft 453 kts 306°
2026-05-07 02:37 58.05584 -143.27455 32179 ft 453 kts 306°
2026-05-07 02:37 58.09781 -143.36321 32179 ft 452 kts 306°
2026-05-07 02:38 58.13940 -143.45141 32168 ft 452 kts 306°
2026-05-07 02:38 58.18116 -143.54031 32166 ft 452 kts 306°
2026-05-07 02:39 58.22289 -143.62948 32165 ft 452 kts 306°
2026-05-07 02:39 58.26450 -143.71874 32163 ft 451 kts 306°
2026-05-07 02:40 58.30601 -143.80812 32160 ft 451 kts 306°
2026-05-07 02:40 58.34745 -143.89771 32158 ft 451 kts 306°
2026-05-07 02:41 58.38886 -143.98757 32157 ft 450 kts 305°
2026-05-07 02:41 58.43009 -144.07739 32153 ft 450 kts 305°
2026-05-07 02:42 58.47129 -144.16748 32147 ft 450 kts 305°
2026-05-07 02:42 58.51234 -144.25762 32148 ft 449 kts 305°
2026-05-07 02:43 58.55333 -144.34796 32146 ft 449 kts 305°
2026-05-07 02:43 58.59426 -144.43851 32146 ft 449 kts 305°
2026-05-07 02:44 58.63505 -144.52912 32135 ft 449 kts 305°
2026-05-07 02:44 58.67552 -144.61937 32137 ft 449 kts 304°
2026-05-07 02:45 58.71616 -144.71033 32137 ft 448 kts 304°
2026-05-07 02:45 58.75675 -144.80157 32141 ft 448 kts 304°
2026-05-07 02:46 58.79724 -144.89292 32136 ft 448 kts 304°
2026-05-07 02:46 58.83767 -144.98449 32138 ft 448 kts 304°
2026-05-07 02:47 58.87804 -145.07630 32139 ft 448 kts 304°
2026-05-07 02:47 58.91834 -145.16832 32138 ft 448 kts 304°
2026-05-07 02:48 58.95861 -145.26062 32135 ft 448 kts 304°
2026-05-07 02:48 58.99880 -145.35309 32137 ft 449 kts 304°
2026-05-07 02:49 59.03895 -145.44585 32133 ft 449 kts 304°
2026-05-07 02:49 59.07903 -145.53882 32134 ft 449 kts 304°
2026-05-07 02:50 59.11901 -145.63194 32126 ft 449 kts 304°
2026-05-07 02:50 59.15897 -145.72538 32132 ft 449 kts 303°
2026-05-07 02:51 59.19884 -145.81897 32127 ft 449 kts 303°
2026-05-07 02:51 59.23872 -145.91298 32117 ft 449 kts 303°
2026-05-07 02:52 59.27822 -146.00647 32111 ft 449 kts 303°
2026-05-07 02:52 59.31794 -146.10085 32115 ft 449 kts 303°
2026-05-07 02:53 59.35758 -146.19544 32114 ft 449 kts 303°
2026-05-07 02:53 59.39720 -146.29032 32117 ft 450 kts 303°
2026-05-07 02:54 59.43849 -146.38318 32117 ft 455 kts 309°
2026-05-07 02:54 59.48396 -146.46986 32116 ft 456 kts 310°
2026-05-07 02:55 59.52990 -146.55716 32118 ft 456 kts 310°
2026-05-07 02:55 59.57504 -146.64383 32114 ft 456 kts 310°
2026-05-07 02:56 59.62031 -146.73143 32107 ft 456 kts 309°
2026-05-07 02:56 59.66544 -146.81924 32101 ft 455 kts 309°
2026-05-07 02:57 59.71051 -146.90727 32094 ft 455 kts 309°
2026-05-07 02:57 59.75554 -146.99555 32092 ft 455 kts 309°
2026-05-07 02:58 59.80049 -147.08402 32090 ft 455 kts 309°
2026-05-07 02:58 59.84536 -147.17269 32090 ft 455 kts 309°
2026-05-07 02:59 59.89014 -147.26154 32087 ft 455 kts 309°
2026-05-07 02:59 59.93489 -147.35070 32084 ft 455 kts 309°
2026-05-07 03:00 59.97958 -147.44008 32084 ft 455 kts 309°
2026-05-07 03:00 60.02418 -147.52968 32106 ft 454 kts 309°
2026-05-07 03:01 60.06874 -147.61951 32091 ft 455 kts 309°
2026-05-07 03:01 60.11325 -147.70963 32101 ft 455 kts 309°
2026-05-07 03:02 60.15737 -147.79934 32106 ft 454 kts 309°
2026-05-07 03:02 60.20170 -147.88984 32100 ft 454 kts 309°
2026-05-07 03:03 60.24598 -147.98059 32102 ft 454 kts 309°
2026-05-07 03:03 60.29026 -148.07172 32097 ft 454 kts 309°
2026-05-07 03:04 60.32699 -148.14760 32089 ft 455 kts 309°
2026-05-07 03:04 60.37108 -148.23903 32077 ft 455 kts 309°
2026-05-07 03:05 60.41517 -148.33088 32094 ft 455 kts 309°
2026-05-07 03:05 60.45919 -148.42286 32102 ft 455 kts 309°
2026-05-07 03:06 60.50316 -148.51523 32077 ft 455 kts 309°
2026-05-07 03:06 60.54715 -148.60795 32073 ft 456 kts 309°
2026-05-07 03:07 60.59106 -148.70096 32084 ft 456 kts 309°
2026-05-07 03:07 60.63501 -148.79437 32097 ft 457 kts 309°
2026-05-07 03:08 60.67900 -148.88828 32086 ft 459 kts 309°
2026-05-07 03:08 60.72315 -148.98292 32074 ft 461 kts 309°
2026-05-07 03:09 60.76729 -149.07800 32055 ft 461 kts 309°
2026-05-07 03:09 60.81145 -149.17349 32056 ft 461 kts 309°
2026-05-07 03:10 60.85540 -149.26895 32053 ft 460 kts 309°
2026-05-07 03:10 60.89925 -149.36462 32043 ft 460 kts 309°
2026-05-07 03:11 60.94292 -149.46026 32044 ft 459 kts 309°
2026-05-07 03:11 60.98653 -149.55620 32033 ft 458 kts 309°
2026-05-07 03:12 61.03008 -149.65242 32038 ft 459 kts 309°
2026-05-07 03:12 61.07328 -149.74833 32025 ft 460 kts 309°
2026-05-07 03:13 61.11675 -149.84516 32030 ft 460 kts 309°
2026-05-07 03:13 61.15527 -149.94906 32036 ft 451 kts 294°
2026-05-07 03:14 61.17603 -150.07070 32018 ft 447 kts 277°
2026-05-07 03:15 61.18748 -150.26252 32036 ft 449 kts 275°
2026-05-07 03:15 61.19490 -150.39131 32036 ft 450 kts 276°
2026-05-07 03:16 61.20256 -150.52028 32023 ft 451 kts 276°
2026-05-07 03:16 61.21025 -150.64960 32015 ft 452 kts 276°
2026-05-07 03:17 61.21782 -150.77880 32016 ft 451 kts 276°
2026-05-07 03:17 61.22526 -150.90808 32020 ft 451 kts 276°
2026-05-07 03:18 61.23256 -151.03727 32012 ft 451 kts 275°
2026-05-07 03:18 61.23974 -151.16655 32015 ft 450 kts 275°
2026-05-07 03:19 61.24678 -151.29565 32015 ft 450 kts 275°
2026-05-07 03:19 61.25366 -151.42412 32009 ft 450 kts 275°
2026-05-07 03:20 61.26046 -151.55342 32014 ft 450 kts 275°
2026-05-07 03:20 61.26715 -151.68293 32012 ft 451 kts 275°
2026-05-07 03:21 61.27372 -151.81248 32015 ft 451 kts 275°
2026-05-07 03:21 61.28017 -151.94192 32027 ft 451 kts 275°
2026-05-07 03:22 61.28394 -152.07232 32028 ft 451 kts 270°
2026-05-07 03:22 61.28442 -152.20287 32027 ft 451 kts 270°
2026-05-07 03:23 61.28477 -152.33334 32041 ft 452 kts 270°
2026-05-07 03:23 61.28515 -152.46424 32036 ft 453 kts 270°
2026-05-07 03:24 61.28548 -152.59536 32029 ft 453 kts 270°
2026-05-07 03:24 61.28570 -152.72631 32028 ft 453 kts 270°
2026-05-07 03:25 61.28579 -152.85742 32043 ft 453 kts 270°
2026-05-07 03:25 61.28575 -152.98757 32053 ft 453 kts 270°
2026-05-07 03:26 61.28558 -153.11865 32051 ft 453 kts 270°
2026-05-07 03:26 61.28529 -153.24942 32055 ft 453 kts 269°
2026-05-07 03:27 61.28487 -153.38033 32059 ft 453 kts 269°
2026-05-07 03:27 61.28432 -153.51127 32071 ft 453 kts 269°
2026-05-07 03:28 61.28366 -153.64242 32071 ft 453 kts 269°
2026-05-07 03:28 61.28285 -153.77351 32068 ft 454 kts 269°
2026-05-07 03:29 61.28193 -153.90478 32064 ft 454 kts 269°
2026-05-07 03:29 61.28089 -154.03494 32061 ft 454 kts 269°
2026-05-07 03:30 61.27970 -154.16628 32064 ft 454 kts 269°
2026-05-07 03:30 61.27839 -154.29762 32065 ft 455 kts 269°
2026-05-07 03:31 61.27696 -154.42914 32065 ft 455 kts 269°
2026-05-07 03:31 61.27540 -154.56072 32064 ft 456 kts 269°
2026-05-07 03:32 61.27371 -154.69241 32054 ft 456 kts 269°
2026-05-07 03:32 61.27189 -154.82403 32058 ft 455 kts 269°
2026-05-07 03:33 61.26994 -154.95546 32063 ft 455 kts 269°
2026-05-07 03:33 61.26787 -155.08698 32055 ft 455 kts 268°
2026-05-07 03:34 61.26569 -155.21767 32050 ft 455 kts 268°
2026-05-07 03:34 61.26336 -155.34917 32041 ft 455 kts 268°
2026-05-07 03:35 61.26091 -155.48080 32044 ft 456 kts 268°
2026-05-07 03:35 61.25833 -155.61240 32035 ft 456 kts 268°
2026-05-07 03:36 61.25562 -155.74404 32041 ft 456 kts 268°
2026-05-07 03:36 61.25280 -155.87583 32050 ft 457 kts 268°
2026-05-07 03:37 61.25000 -156.00763 32058 ft 457 kts 270°
2026-05-07 03:37 61.25034 -156.13947 32071 ft 457 kts 271°
2026-05-07 03:38 61.25130 -156.27147 32086 ft 457 kts 271°
2026-05-07 03:38 61.25206 -156.40353 32078 ft 457 kts 271°
2026-05-07 03:39 61.25256 -156.53565 32070 ft 457 kts 271°
2026-05-07 03:39 61.25288 -156.66776 32087 ft 458 kts 271°
2026-05-07 03:40 61.25306 -156.79992 32083 ft 458 kts 271°
2026-05-07 03:40 61.25312 -156.93216 32084 ft 458 kts 271°
2026-05-07 03:41 61.25305 -157.06444 32084 ft 458 kts 271°
2026-05-07 03:41 61.25285 -157.19588 32092 ft 458 kts 271°
2026-05-07 03:42 61.25252 -157.32823 32090 ft 458 kts 271°
2026-05-07 03:42 61.25207 -157.46079 32095 ft 459 kts 271°
2026-05-07 03:43 61.25148 -157.59327 32103 ft 459 kts 270°
2026-05-07 03:43 61.25077 -157.72592 32099 ft 459 kts 270°
2026-05-07 03:44 61.24992 -157.85861 32102 ft 459 kts 270°
2026-05-07 03:44 61.24895 -157.99138 32113 ft 460 kts 270°
2026-05-07 03:45 61.24784 -158.12405 32113 ft 460 kts 270°
2026-05-07 03:45 61.24661 -158.25695 32121 ft 460 kts 270°
2026-05-07 03:46 61.24524 -158.38974 32107 ft 460 kts 270°
2026-05-07 03:46 61.24374 -158.52271 32118 ft 460 kts 270°
2026-05-07 03:47 61.24212 -158.65549 32121 ft 460 kts 270°
2026-05-07 03:47 61.24036 -158.78835 32115 ft 460 kts 270°
2026-05-07 03:48 61.23849 -158.92027 32123 ft 460 kts 270°
2026-05-07 03:48 61.23647 -159.05318 32123 ft 460 kts 270°
2026-05-07 03:49 61.23431 -159.18697 32119 ft 461 kts 270°
2026-05-07 03:49 61.23205 -159.31898 32124 ft 461 kts 270°
2026-05-07 03:50 61.22965 -159.45182 32124 ft 461 kts 270°
2026-05-07 03:50 61.22711 -159.58472 32123 ft 461 kts 270°
2026-05-07 03:51 61.22442 -159.71777 32133 ft 461 kts 270°
2026-05-07 03:51 61.22164 -159.85072 32139 ft 462 kts 270°
2026-05-07 03:52 61.21871 -159.98394 32142 ft 462 kts 270°
2026-05-07 03:52 61.21564 -160.11714 32148 ft 463 kts 270°
2026-05-07 03:53 61.21243 -160.25033 32145 ft 463 kts 270°
2026-05-07 03:53 61.20910 -160.38371 32143 ft 463 kts 270°
2026-05-07 03:54 61.20623 -160.49442 32142 ft 463 kts 270°
2026-05-07 03:54 61.20266 -160.62770 32154 ft 463 kts 269°
2026-05-07 03:55 61.19896 -160.76103 32159 ft 463 kts 269°
2026-05-07 03:55 61.19512 -160.89441 32145 ft 464 kts 269°
2026-05-07 03:56 61.19114 -161.02787 32156 ft 464 kts 269°
2026-05-07 03:56 61.18703 -161.16154 32156 ft 465 kts 269°
2026-05-07 03:57 61.18278 -161.29526 32153 ft 465 kts 269°
2026-05-07 03:57 61.17840 -161.42923 32152 ft 466 kts 269°
2026-05-07 03:58 61.17387 -161.56326 32155 ft 466 kts 269°
2026-05-07 03:58 61.16924 -161.69648 32163 ft 467 kts 269°
2026-05-07 03:59 61.16442 -161.83154 32167 ft 467 kts 269°
2026-05-07 03:59 61.15951 -161.96500 32176 ft 468 kts 269°
2026-05-07 04:00 61.15445 -162.09936 32179 ft 468 kts 269°
2026-05-07 04:00 61.14924 -162.23380 32182 ft 469 kts 269°
2026-05-07 04:01 61.14389 -162.36834 32176 ft 469 kts 269°
2026-05-07 04:01 61.13840 -162.50303 32185 ft 469 kts 268°
2026-05-07 04:02 61.13278 -162.63759 32182 ft 470 kts 268°
2026-05-07 04:02 61.12703 -162.77229 32183 ft 470 kts 268°
2026-05-07 04:03 61.12116 -162.90703 32194 ft 470 kts 268°
2026-05-07 04:03 61.11196 -163.04124 32182 ft 475 kts 259°
2026-05-07 04:04 61.09361 -163.17268 32186 ft 476 kts 257°
2026-05-07 04:04 61.07471 -163.30386 32185 ft 477 kts 257°
2026-05-07 04:05 61.05597 -163.43523 32189 ft 477 kts 257°
2026-05-07 04:05 61.03727 -163.56657 32186 ft 477 kts 257°
2026-05-07 04:06 61.01847 -163.69780 32185 ft 477 kts 257°
2026-05-07 04:06 60.99951 -163.82906 32183 ft 477 kts 257°
2026-05-07 04:07 60.98043 -163.95994 32184 ft 477 kts 257°
2026-05-07 04:07 60.96121 -164.09085 32179 ft 477 kts 257°
2026-05-07 04:08 60.94187 -164.22146 32191 ft 477 kts 257°
2026-05-07 04:08 60.92239 -164.35204 32184 ft 478 kts 256°
2026-05-07 04:09 60.90277 -164.48257 32187 ft 478 kts 256°
2026-05-07 04:09 60.88305 -164.61281 32185 ft 478 kts 256°
2026-05-07 04:10 60.86320 -164.74288 32185 ft 478 kts 256°
2026-05-07 04:10 60.84321 -164.87297 32188 ft 478 kts 256°
2026-05-07 04:11 60.82313 -165.00276 32188 ft 478 kts 256°
2026-05-07 04:11 60.80285 -165.13245 32185 ft 478 kts 256°
2026-05-07 04:12 60.78243 -165.26206 32191 ft 478 kts 256°
2026-05-07 04:12 60.76205 -165.39062 32184 ft 479 kts 256°
2026-05-07 04:13 60.74140 -165.51998 32183 ft 479 kts 256°
2026-05-07 04:13 60.72060 -165.64938 32180 ft 479 kts 255°
2026-05-07 04:14 60.69968 -165.77857 32181 ft 479 kts 255°
2026-05-07 04:14 60.67864 -165.90755 32164 ft 479 kts 255°
2026-05-07 04:15 60.65746 -166.03645 32168 ft 479 kts 255°
2026-05-07 04:15 60.63617 -166.16513 32168 ft 479 kts 255°
2026-05-07 04:16 60.61474 -166.29371 32176 ft 479 kts 255°
2026-05-07 04:16 60.59320 -166.42207 32172 ft 479 kts 255°
2026-05-07 04:17 60.57152 -166.55032 32170 ft 479 kts 255°
2026-05-07 04:17 60.54975 -166.67826 32170 ft 479 kts 254°
2026-05-07 04:18 60.52784 -166.80610 32175 ft 479 kts 254°
2026-05-07 04:18 60.50577 -166.93398 32175 ft 480 kts 254°
2026-05-07 04:19 60.48362 -167.06148 32174 ft 480 kts 254°
2026-05-07 04:19 60.46131 -167.18899 32174 ft 480 kts 254°
2026-05-07 04:20 60.43890 -167.31625 32179 ft 480 kts 253°
2026-05-07 04:20 60.41635 -167.44341 32174 ft 480 kts 253°
2026-05-07 04:21 60.38240 -167.63324 32174 ft 480 kts 253°
2026-05-07 04:21 60.35953 -167.76008 32170 ft 480 kts 253°
2026-05-07 04:22 60.33655 -167.88672 32171 ft 480 kts 253°
2026-05-07 04:22 60.31343 -168.01340 32175 ft 481 kts 253°
2026-05-07 04:23 60.29042 -168.13987 32173 ft 480 kts 253°
2026-05-07 04:23 60.26766 -168.26645 32172 ft 480 kts 253°
2026-05-07 04:24 60.24484 -168.39276 32182 ft 480 kts 253°
2026-05-07 04:24 60.22184 -168.51890 32166 ft 480 kts 253°
2026-05-07 04:25 60.19868 -168.64496 32182 ft 480 kts 252°
2026-05-07 04:25 60.17543 -168.77067 32180 ft 480 kts 252°
2026-05-07 04:26 60.15201 -168.89643 32179 ft 480 kts 252°
2026-05-07 04:26 60.12851 -169.02183 32177 ft 480 kts 252°
2026-05-07 04:27 60.10488 -169.14716 32177 ft 480 kts 252°
2026-05-07 04:27 60.08113 -169.27226 32177 ft 480 kts 252°
2026-05-07 04:28 60.05728 -169.39714 32178 ft 480 kts 251°
2026-05-07 04:28 60.03345 -169.52109 32177 ft 480 kts 251°
2026-05-07 04:29 60.00934 -169.64568 32184 ft 480 kts 251°
2026-05-07 04:29 59.98513 -169.77005 32179 ft 480 kts 251°
2026-05-07 04:30 59.96079 -169.89425 32180 ft 480 kts 251°
2026-05-07 04:30 59.93635 -170.01825 32182 ft 480 kts 251°
2026-05-07 04:31 59.91181 -170.14197 32182 ft 480 kts 251°
2026-05-07 04:31 59.88717 -170.26540 32186 ft 479 kts 251°
2026-05-07 04:32 59.86245 -170.38850 32181 ft 479 kts 250°
2026-05-07 04:32 59.83762 -170.51136 32182 ft 478 kts 250°
2026-05-07 04:33 59.81272 -170.63385 32182 ft 478 kts 250°
2026-05-07 04:33 59.78773 -170.75604 32182 ft 477 kts 250°
2026-05-07 04:34 59.76264 -170.87794 32184 ft 476 kts 250°
2026-05-07 04:34 59.73751 -170.99936 32183 ft 475 kts 250°
2026-05-07 04:35 59.71234 -171.12026 32183 ft 475 kts 250°
2026-05-07 04:35 59.68707 -171.24091 32182 ft 474 kts 250°
2026-05-07 04:36 59.66175 -171.36109 32180 ft 473 kts 250°
2026-05-07 04:36 59.63638 -171.48079 32181 ft 472 kts 250°
2026-05-07 04:37 59.61096 -171.60010 32180 ft 471 kts 250°
2026-05-07 04:37 59.58546 -171.71907 32180 ft 470 kts 250°
2026-05-07 04:38 59.55991 -171.83772 32180 ft 470 kts 250°
2026-05-07 04:38 59.53467 -171.95554 32179 ft 469 kts 251°
2026-05-07 04:39 59.51044 -172.07453 32182 ft 468 kts 251°
2026-05-07 04:39 59.48639 -172.19338 32177 ft 467 kts 251°
2026-05-07 04:40 59.46213 -172.31181 32178 ft 467 kts 251°
2026-05-07 04:40 59.43769 -172.42990 32180 ft 466 kts 251°
2026-05-07 04:41 59.41314 -172.54768 32179 ft 465 kts 251°
2026-05-07 04:41 59.38855 -172.66496 32179 ft 465 kts 251°
2026-05-07 04:42 59.36804 -172.76233 32175 ft 464 kts 251°
2026-05-07 04:42 59.34330 -172.87919 32172 ft 464 kts 251°
2026-05-07 04:43 59.31847 -172.99581 32174 ft 463 kts 251°
2026-05-07 04:43 59.29360 -173.11194 32172 ft 463 kts 250°
2026-05-07 04:44 59.26863 -173.22790 32171 ft 462 kts 250°
2026-05-07 04:44 59.24363 -173.34335 32169 ft 462 kts 250°
2026-05-07 04:45 59.21840 -173.45919 32171 ft 462 kts 250°
2026-05-07 04:45 59.19319 -173.57434 32166 ft 462 kts 250°
2026-05-07 04:46 59.16762 -173.69058 32181 ft 471 kts 247°
2026-05-07 04:46 59.14136 -173.80913 32176 ft 481 kts 247°
2026-05-07 04:47 59.11450 -173.92981 32171 ft 489 kts 247°
2026-05-07 04:47 59.08751 -174.05033 32165 ft 489 kts 247°
2026-05-07 04:48 59.06030 -174.17130 32169 ft 488 kts 247°
2026-05-07 04:48 59.03331 -174.29235 32162 ft 488 kts 247°
2026-05-07 04:49 59.00705 -174.41351 32165 ft 487 kts 248°
2026-05-07 04:49 58.98076 -174.53454 32155 ft 487 kts 247°
2026-05-07 04:50 58.95429 -174.65514 32164 ft 486 kts 247°
2026-05-07 04:50 58.92762 -174.77562 32157 ft 486 kts 247°
2026-05-07 04:51 58.90084 -174.89587 32158 ft 487 kts 246°
2026-05-07 04:51 58.87391 -175.01610 32158 ft 487 kts 246°
2026-05-07 04:52 58.84685 -175.13627 32156 ft 488 kts 246°
2026-05-07 04:52 58.81964 -175.25640 32152 ft 489 kts 246°
2026-05-07 04:53 58.79229 -175.37649 32152 ft 489 kts 246°
2026-05-07 04:53 58.76477 -175.49663 32141 ft 490 kts 246°
2026-05-07 04:54 58.73715 -175.61653 32142 ft 490 kts 245°
2026-05-07 04:54 58.70940 -175.73634 32143 ft 490 kts 245°
2026-05-07 04:55 58.68172 -175.85519 32143 ft 490 kts 245°
2026-05-07 04:55 58.65374 -175.97465 32141 ft 490 kts 245°
2026-05-07 04:56 58.62561 -176.09402 32141 ft 491 kts 244°
2026-05-07 04:56 58.59735 -176.21336 32121 ft 492 kts 244°
2026-05-07 04:57 58.56890 -176.33285 32122 ft 493 kts 244°
2026-05-07 04:57 58.54027 -176.45241 32137 ft 494 kts 244°
2026-05-07 04:58 58.51146 -176.57212 32123 ft 495 kts 244°
2026-05-07 04:58 58.48254 -176.69154 32116 ft 495 kts 243°
2026-05-07 04:59 58.45351 -176.81079 32116 ft 494 kts 243°
2026-05-07 04:59 58.42445 -176.92958 32110 ft 494 kts 243°
2026-05-07 05:00 58.39531 -177.04811 32109 ft 493 kts 243°
2026-05-07 05:00 58.36609 -177.16627 32105 ft 492 kts 243°
2026-05-07 05:01 58.33689 -177.28410 32101 ft 492 kts 243°
2026-05-07 05:01 58.30762 -177.40169 32101 ft 491 kts 242°
2026-05-07 05:02 58.27829 -177.51890 32100 ft 491 kts 242°
2026-05-07 05:02 58.24882 -177.63605 32096 ft 491 kts 242°
2026-05-07 05:03 58.21929 -177.75280 32090 ft 491 kts 242°
2026-05-07 05:03 58.18982 -177.86870 32084 ft 491 kts 242°
2026-05-07 05:04 58.16003 -177.98526 32085 ft 492 kts 241°
2026-05-07 05:04 58.13011 -178.10174 32078 ft 492 kts 241°
2026-05-07 05:05 58.10004 -178.21817 32074 ft 493 kts 241°
2026-05-07 05:05 58.06983 -178.33453 32072 ft 493 kts 241°
2026-05-07 05:06 58.03945 -178.45094 32067 ft 494 kts 240°
2026-05-07 05:06 58.00899 -178.56707 32062 ft 494 kts 240°
2026-05-07 05:07 57.97835 -178.68329 32060 ft 495 kts 240°
2026-05-07 05:07 57.94754 -178.79951 32054 ft 495 kts 240°
2026-05-07 05:08 57.91688 -178.91460 32052 ft 496 kts 240°
2026-05-07 05:08 57.88566 -179.03118 32047 ft 496 kts 239°
2026-05-07 05:09 57.85475 -179.14603 32046 ft 496 kts 239°
2026-05-07 05:09 57.82350 -179.26157 32042 ft 497 kts 239°
2026-05-07 05:10 57.79211 -179.37700 32034 ft 497 kts 239°
2026-05-07 05:10 57.76057 -179.49243 32031 ft 497 kts 239°
2026-05-07 05:11 57.72895 -179.60754 32028 ft 498 kts 238°
2026-05-07 05:11 57.69718 -179.72261 32028 ft 498 kts 238°
2026-05-07 05:12 57.66527 -179.83764 32018 ft 499 kts 238°
2026-05-07 05:12 57.63325 -179.95246 32014 ft 499 kts 238°
2026-05-07 05:13 57.60108 179.93276 32002 ft 499 kts 238°
2026-05-07 05:13 57.56883 179.81825 32003 ft 499 kts 237°
2026-05-07 05:14 57.53647 179.70390 31996 ft 499 kts 237°
2026-05-07 05:14 57.50402 179.58984 32002 ft 499 kts 237°
2026-05-07 05:15 57.47145 179.47591 31988 ft 499 kts 237°
2026-05-07 05:15 57.43881 179.36230 31983 ft 499 kts 237°
2026-05-07 05:16 57.40629 179.24964 31983 ft 498 kts 236°
2026-05-07 05:16 57.37344 179.13640 31981 ft 498 kts 236°
2026-05-07 05:17 57.34052 179.02350 31972 ft 498 kts 236°
2026-05-07 05:17 57.30757 178.91101 31969 ft 497 kts 236°
2026-05-07 05:18 57.27449 178.79861 31962 ft 497 kts 236°
2026-05-07 05:18 57.24134 178.68653 31948 ft 497 kts 235°
2026-05-07 05:19 57.20818 178.57496 31951 ft 496 kts 235°
2026-05-07 05:19 57.17486 178.46339 31953 ft 496 kts 235°
2026-05-07 05:20 57.14143 178.35199 31932 ft 496 kts 235°
2026-05-07 05:20 57.10797 178.24101 31933 ft 496 kts 234°
2026-05-07 05:21 57.05749 178.07454 31929 ft 497 kts 234°
2026-05-07 05:22 57.02368 177.96372 31926 ft 497 kts 234°
2026-05-07 05:22 56.99000 177.85381 31931 ft 498 kts 234°
2026-05-07 05:23 56.95593 177.74316 31918 ft 498 kts 234°
2026-05-07 05:23 56.92178 177.63274 31905 ft 498 kts 234°
2026-05-07 05:24 56.88752 177.52250 31898 ft 498 kts 233°
2026-05-07 05:24 56.85317 177.41240 31897 ft 498 kts 233°
2026-05-07 05:25 56.81873 177.30269 31890 ft 498 kts 233°
2026-05-07 05:25 56.78401 177.19326 31886 ft 498 kts 233°
2026-05-07 05:26 56.74916 177.08401 31883 ft 498 kts 233°
2026-05-07 05:26 56.71425 176.97490 31880 ft 499 kts 233°
2026-05-07 05:27 56.67920 176.86580 31869 ft 500 kts 233°
2026-05-07 05:27 56.64400 176.75671 31862 ft 500 kts 232°
2026-05-07 05:28 56.60872 176.64785 31860 ft 500 kts 232°
2026-05-07 05:28 56.57357 176.53990 31849 ft 500 kts 232°
2026-05-07 05:29 56.53813 176.43156 31854 ft 500 kts 232°
2026-05-07 05:29 56.50258 176.32338 31860 ft 500 kts 232°
2026-05-07 05:30 56.46685 176.21516 31835 ft 501 kts 232°
2026-05-07 05:30 56.43104 176.10716 31830 ft 501 kts 232°
2026-05-07 05:31 56.40099 176.01690 31828 ft 500 kts 232°
2026-05-07 05:31 56.36504 175.90936 31827 ft 500 kts 232°
2026-05-07 05:32 56.32925 175.80281 31825 ft 500 kts 232°
2026-05-07 05:32 56.29310 175.69567 31814 ft 501 kts 232°
2026-05-07 05:33 56.25684 175.58865 31820 ft 501 kts 232°
2026-05-07 05:33 56.22048 175.48181 31817 ft 501 kts 232°
2026-05-07 05:34 56.18404 175.37519 31797 ft 501 kts 232°
2026-05-07 05:34 56.14751 175.26882 31802 ft 501 kts 232°
2026-05-07 05:35 56.11089 175.16263 31803 ft 501 kts 232°
2026-05-07 05:35 56.07412 175.05648 31786 ft 501 kts 232°
2026-05-07 05:36 56.03733 174.95072 31783 ft 501 kts 232°
2026-05-07 05:36 56.00046 174.84520 31777 ft 500 kts 232°
2026-05-07 05:37 55.96354 174.73999 31770 ft 500 kts 232°
2026-05-07 05:37 55.92656 174.63508 31763 ft 499 kts 232°
2026-05-07 05:38 55.88949 174.53037 31761 ft 499 kts 232°
2026-05-07 05:38 55.85236 174.42592 31758 ft 499 kts 232°
2026-05-07 05:39 55.81514 174.32171 31754 ft 499 kts 232°
2026-05-07 05:39 55.77786 174.21773 31750 ft 499 kts 232°
2026-05-07 05:40 55.74051 174.11401 31745 ft 498 kts 232°
2026-05-07 05:40 55.70303 174.01040 31934 ft 500 kts 233°
2026-05-07 05:40 55.68425 173.95863 32289 ft 498 kts 233°
2026-05-07 05:41 55.66552 173.90708 32690 ft 496 kts 233°
2026-05-07 05:41 55.64688 173.85588 33052 ft 494 kts 233°
2026-05-07 05:41 55.62828 173.80493 33377 ft 493 kts 233°
2026-05-07 05:41 55.60964 173.75400 33628 ft 493 kts 233°
2026-05-07 05:42 55.59094 173.70300 33683 ft 495 kts 233°
2026-05-07 05:42 55.55368 173.60172 33720 ft 493 kts 233°
2026-05-07 05:43 55.51632 173.50052 33721 ft 491 kts 233°
2026-05-07 05:43 55.47903 173.39996 33717 ft 490 kts 234°
2026-05-07 05:44 55.44146 173.29906 33719 ft 489 kts 234°
2026-05-07 05:44 55.40429 173.19965 33716 ft 489 kts 234°
2026-05-07 05:45 55.36654 173.09908 33710 ft 490 kts 234°
2026-05-07 05:45 55.32915 172.99989 33705 ft 490 kts 234°
2026-05-07 05:46 55.29142 172.90018 33704 ft 491 kts 234°
2026-05-07 05:46 55.25354 172.80050 33695 ft 491 kts 234°
2026-05-07 05:47 55.21556 172.70094 33696 ft 491 kts 234°
2026-05-07 05:47 55.17757 172.60175 33693 ft 491 kts 234°
2026-05-07 05:48 55.13950 172.50277 33691 ft 490 kts 234°
2026-05-07 05:48 55.10137 172.40400 33684 ft 490 kts 234°
2026-05-07 05:49 55.06320 172.30553 33687 ft 489 kts 234°
2026-05-07 05:49 55.02498 172.20733 33679 ft 489 kts 234°
2026-05-07 05:50 54.98674 172.10943 33676 ft 489 kts 234°
2026-05-07 05:50 54.94844 172.01174 33675 ft 488 kts 234°
2026-05-07 05:51 54.90777 171.91756 33678 ft 486 kts 229°
2026-05-07 05:51 54.86456 171.82707 33669 ft 486 kts 229°
2026-05-07 05:52 54.82131 171.73676 33668 ft 486 kts 229°
2026-05-07 05:52 54.77815 171.64639 33667 ft 487 kts 229°
2026-05-07 05:53 54.73529 171.55666 33662 ft 487 kts 229°
2026-05-07 05:53 54.69206 171.46647 33651 ft 487 kts 229°
2026-05-07 05:54 54.64879 171.37656 33652 ft 487 kts 229°
2026-05-07 05:54 54.60550 171.28693 33649 ft 486 kts 229°
2026-05-07 05:55 54.56217 171.19758 33646 ft 485 kts 229°
2026-05-07 05:55 54.51890 171.10864 33639 ft 484 kts 229°
2026-05-07 05:56 54.47567 171.02013 33647 ft 482 kts 229°
2026-05-07 05:56 54.43249 170.93205 33647 ft 482 kts 229°
2026-05-07 05:57 54.38927 170.84418 33630 ft 482 kts 229°
2026-05-07 05:57 54.34595 170.75644 33633 ft 482 kts 229°
2026-05-07 05:58 54.30257 170.66888 33641 ft 482 kts 229°
2026-05-07 05:58 54.25912 170.58149 33630 ft 482 kts 229°
2026-05-07 05:59 54.21562 170.49433 33632 ft 482 kts 229°
2026-05-07 05:59 54.17205 170.40731 33621 ft 482 kts 229°
2026-05-07 06:00 54.12843 170.32050 33623 ft 481 kts 229°
2026-05-07 06:00 54.08509 170.23458 33625 ft 481 kts 229°
2026-05-07 06:01 54.04149 170.14841 33617 ft 480 kts 229°
2026-05-07 06:01 53.99781 170.06241 33626 ft 480 kts 229°
2026-05-07 06:02 53.95415 169.97675 33616 ft 479 kts 229°
2026-05-07 06:02 53.91048 169.89135 33618 ft 479 kts 229°
2026-05-07 06:03 53.86670 169.80603 33622 ft 479 kts 229°
2026-05-07 06:03 53.82286 169.72090 33619 ft 480 kts 229°
2026-05-07 06:04 53.77894 169.63590 33621 ft 480 kts 229°
2026-05-07 06:04 53.73497 169.55109 33617 ft 480 kts 229°
2026-05-07 06:05 53.69094 169.46641 33617 ft 480 kts 229°
2026-05-07 06:05 53.64687 169.38175 33615 ft 480 kts 231°
2026-05-07 06:06 53.60871 169.28987 33614 ft 479 kts 242°
2026-05-07 06:06 53.57750 169.19080 33611 ft 479 kts 242°
2026-05-07 06:07 53.54625 169.09202 33618 ft 478 kts 242°
2026-05-07 06:07 53.51473 168.99378 33629 ft 477 kts 242°
2026-05-07 06:08 53.48307 168.89585 33615 ft 476 kts 242°
2026-05-07 06:08 53.45139 168.79830 33613 ft 476 kts 242°
2026-05-07 06:09 53.41967 168.70094 33627 ft 475 kts 242°
2026-05-07 06:09 53.38790 168.60383 33627 ft 475 kts 242°
2026-05-07 06:10 53.35632 168.50763 33627 ft 475 kts 242°
2026-05-07 06:10 53.32442 168.41081 33611 ft 475 kts 242°
2026-05-07 06:11 53.29247 168.31430 33624 ft 475 kts 242°
2026-05-07 06:11 53.26029 168.21792 33620 ft 475 kts 242°
2026-05-07 06:12 53.22803 168.12165 33626 ft 475 kts 242°
2026-05-07 06:12 53.19573 168.02559 33627 ft 475 kts 242°
2026-05-07 06:13 53.16339 167.92972 33626 ft 474 kts 242°
2026-05-07 06:13 53.13101 167.83408 33634 ft 474 kts 242°
2026-05-07 06:14 53.09858 167.73870 33633 ft 473 kts 242°
2026-05-07 06:14 53.06615 167.64365 33636 ft 472 kts 242°
2026-05-07 06:15 53.03369 167.54889 33634 ft 471 kts 242°
2026-05-07 06:15 53.00124 167.45453 33634 ft 470 kts 242°
2026-05-07 06:16 52.96878 167.36051 33641 ft 469 kts 242°
2026-05-07 06:16 52.93631 167.26678 33637 ft 468 kts 242°
2026-05-07 06:17 52.90379 167.17329 33643 ft 468 kts 242°
2026-05-07 06:17 52.87676 167.09584 33646 ft 467 kts 242°
2026-05-07 06:18 52.84419 167.00282 33646 ft 467 kts 242°
2026-05-07 06:18 52.81155 166.90997 33647 ft 467 kts 242°
2026-05-07 06:19 52.77887 166.81733 33652 ft 466 kts 242°
2026-05-07 06:19 52.74614 166.72491 33651 ft 466 kts 242°
2026-05-07 06:20 52.71337 166.63271 33651 ft 466 kts 242°
2026-05-07 06:20 52.68054 166.54067 33652 ft 465 kts 242°
2026-05-07 06:21 52.64765 166.44883 33659 ft 465 kts 242°
2026-05-07 06:21 52.61474 166.35723 33659 ft 465 kts 242°
2026-05-07 06:22 52.58176 166.26581 33660 ft 464 kts 242°
2026-05-07 06:22 52.53246 166.12973 33662 ft 464 kts 242°
2026-05-07 06:23 52.49940 166.03888 33664 ft 463 kts 242°
2026-05-07 06:23 52.46638 165.94850 33666 ft 463 kts 242°
2026-05-07 06:24 52.43323 165.85805 33665 ft 462 kts 242°
2026-05-07 06:24 52.40005 165.76785 33664 ft 462 kts 242°
2026-05-07 06:25 52.36680 165.67781 33666 ft 462 kts 242°
2026-05-07 06:25 52.33352 165.58798 33666 ft 461 kts 242°
2026-05-07 06:26 52.30017 165.49830 33666 ft 461 kts 242°
2026-05-07 06:26 52.26678 165.40880 33671 ft 461 kts 242°
2026-05-07 06:27 52.23338 165.31960 33673 ft 460 kts 242°
2026-05-07 06:27 52.19992 165.23058 33674 ft 460 kts 242°
2026-05-07 06:28 52.16644 165.14179 33671 ft 459 kts 242°
2026-05-07 06:28 52.13295 165.05329 33671 ft 459 kts 242°
2026-05-07 06:29 52.09944 164.96504 33677 ft 458 kts 242°
2026-05-07 06:29 52.06592 164.87708 33677 ft 457 kts 242°
2026-05-07 06:30 52.03240 164.78940 33682 ft 457 kts 242°
2026-05-07 06:30 51.99887 164.70202 33674 ft 456 kts 242°
2026-05-07 06:31 51.96529 164.61479 33688 ft 455 kts 242°
2026-05-07 06:31 51.93173 164.52793 33684 ft 454 kts 242°
2026-05-07 06:32 51.89816 164.44132 33688 ft 454 kts 242°
2026-05-07 06:32 51.86482 164.35558 33683 ft 453 kts 242°
2026-05-07 06:33 51.83120 164.26945 33700 ft 452 kts 242°
2026-05-07 06:33 51.79763 164.18369 33700 ft 451 kts 242°
2026-05-07 06:34 51.76381 164.09759 33699 ft 451 kts 242°
2026-05-07 06:34 51.73044 164.01293 33699 ft 450 kts 242°
2026-05-07 06:35 51.69684 163.92796 33702 ft 449 kts 242°
2026-05-07 06:35 51.66324 163.84325 33708 ft 448 kts 242°
2026-05-07 06:36 51.62964 163.75876 33707 ft 448 kts 242°
2026-05-07 06:36 51.59598 163.67450 33710 ft 447 kts 242°
2026-05-07 06:37 51.56232 163.59060 33719 ft 446 kts 242°
2026-05-07 06:37 51.52865 163.50689 33716 ft 445 kts 242°
2026-05-07 06:38 51.49501 163.42350 33720 ft 445 kts 242°
2026-05-07 06:38 51.46136 163.34033 33723 ft 444 kts 242°
2026-05-07 06:39 51.42768 163.25734 33723 ft 444 kts 242°
2026-05-07 06:39 51.39400 163.17461 33727 ft 443 kts 242°
2026-05-07 06:40 51.36032 163.09216 33731 ft 442 kts 242°
2026-05-07 06:40 51.32668 163.01008 33732 ft 440 kts 242°
2026-05-07 06:41 51.29309 162.92837 33734 ft 439 kts 242°
2026-05-07 06:41 51.25961 162.84718 33738 ft 437 kts 242°
2026-05-07 06:42 51.22623 162.76650 33733 ft 435 kts 242°
2026-05-07 06:42 51.19294 162.68627 33740 ft 433 kts 242°
2026-05-07 06:43 51.15973 162.60648 33738 ft 432 kts 243°
2026-05-07 06:43 51.12644 162.52672 33738 ft 432 kts 243°
2026-05-07 06:44 51.09309 162.44705 33742 ft 433 kts 243°
2026-05-07 06:44 51.05961 162.36732 33750 ft 434 kts 243°
2026-05-07 06:45 51.02593 162.28736 33754 ft 436 kts 243°
2026-05-07 06:45 50.99207 162.20725 33757 ft 438 kts 243°
2026-05-07 06:46 50.95825 162.12749 33761 ft 439 kts 243°
2026-05-07 06:46 50.92411 162.04720 33763 ft 440 kts 242°
2026-05-07 06:47 50.88987 161.96697 33771 ft 439 kts 242°
2026-05-07 06:47 50.85565 161.88701 33775 ft 438 kts 242°
2026-05-07 06:48 50.82149 161.80745 33774 ft 436 kts 242°
2026-05-07 06:48 50.78753 161.72859 33780 ft 432 kts 243°
2026-05-07 06:49 50.75374 161.65034 33779 ft 429 kts 243°
2026-05-07 06:49 50.72014 161.57275 33782 ft 426 kts 243°
2026-05-07 06:50 50.68671 161.49579 33783 ft 424 kts 243°
2026-05-07 06:50 50.65348 161.41949 33792 ft 421 kts 243°
2026-05-07 06:51 50.62033 161.34361 33792 ft 419 kts 243°
2026-05-07 06:51 50.58730 161.26822 33797 ft 418 kts 243°
2026-05-07 06:52 50.55433 161.19318 33802 ft 416 kts 243°
2026-05-07 06:52 50.52142 161.11849 33806 ft 415 kts 243°
2026-05-07 06:53 50.48856 161.04413 33820 ft 413 kts 243°
2026-05-07 06:53 50.45578 160.97015 33814 ft 412 kts 243°
2026-05-07 06:54 50.42326 160.89698 33808 ft 411 kts 243°
2026-05-07 06:54 50.39061 160.82370 33813 ft 409 kts 243°
2026-05-07 06:55 50.35804 160.75081 33810 ft 408 kts 243°
2026-05-07 06:55 50.32550 160.67820 33818 ft 407 kts 243°
2026-05-07 06:56 50.29301 160.60586 33817 ft 406 kts 243°
2026-05-07 06:56 50.26055 160.53381 33821 ft 405 kts 243°
2026-05-07 06:57 50.22807 160.46185 33825 ft 405 kts 243°
2026-05-07 06:57 50.19557 160.39010 33824 ft 404 kts 243°
2026-05-07 06:58 50.16289 160.31856 33822 ft 404 kts 243°
2026-05-07 06:58 50.13018 160.24732 33831 ft 404 kts 243°
2026-05-07 06:59 50.09747 160.17620 33833 ft 404 kts 243°
2026-05-07 06:59 50.06475 160.10520 33844 ft 403 kts 243°
2026-05-07 07:00 50.03224 160.03480 33844 ft 403 kts 243°
2026-05-07 07:00 49.99952 159.96417 33840 ft 402 kts 243°
2026-05-07 07:01 49.96677 159.89364 33837 ft 402 kts 243°
2026-05-07 07:01 49.93403 159.82333 33846 ft 401 kts 243°
2026-05-07 07:02 49.90130 159.75322 33850 ft 401 kts 243°
2026-05-07 07:02 49.86859 159.68335 33854 ft 400 kts 242°
2026-05-07 07:03 49.83583 159.61355 33850 ft 400 kts 242°
2026-05-07 07:03 49.80305 159.54386 33854 ft 400 kts 242°
2026-05-07 07:04 49.77025 159.47432 33857 ft 400 kts 242°
2026-05-07 07:04 49.74293 159.41651 33857 ft 400 kts 242°
2026-05-07 07:05 49.71001 159.34706 33857 ft 400 kts 242°
2026-05-07 07:05 49.67655 159.27811 33858 ft 401 kts 241°
2026-05-07 07:06 49.64278 159.20949 33861 ft 402 kts 241°
2026-05-07 07:06 49.60898 159.14092 33865 ft 402 kts 241°
2026-05-07 07:07 49.57516 159.07231 33859 ft 402 kts 241°
2026-05-07 07:07 49.54131 159.00378 33859 ft 402 kts 241°
2026-05-07 07:08 49.50742 158.93530 33864 ft 402 kts 241°
2026-05-07 07:08 49.47349 158.86693 33865 ft 402 kts 241°
2026-05-07 07:09 49.43971 158.79904 33862 ft 402 kts 241°
2026-05-07 07:09 49.40544 158.73033 33867 ft 402 kts 241°
2026-05-07 07:10 49.37156 158.66257 33874 ft 403 kts 240°
2026-05-07 07:10 49.33745 158.59453 33873 ft 402 kts 240°
2026-05-07 07:11 49.30327 158.52654 33865 ft 402 kts 240°
2026-05-07 07:11 49.26908 158.45869 33875 ft 402 kts 240°
2026-05-07 07:12 49.23485 158.39093 33877 ft 402 kts 240°
2026-05-07 07:12 49.20058 158.32327 33871 ft 402 kts 240°
2026-05-07 07:13 49.16626 158.25569 33874 ft 402 kts 240°
2026-05-07 07:13 49.13190 158.18818 33872 ft 402 kts 240°
2026-05-07 07:14 49.09726 158.12031 33874 ft 403 kts 240°
2026-05-07 07:14 49.06302 158.05339 33880 ft 403 kts 240°
2026-05-07 07:15 49.02849 157.98607 33879 ft 403 kts 240°
2026-05-07 07:15 48.99384 157.91869 33882 ft 404 kts 240°
2026-05-07 07:16 48.95915 157.85140 33878 ft 404 kts 240°
2026-05-07 07:16 48.92436 157.78408 33877 ft 405 kts 240°
2026-05-07 07:17 48.88951 157.71682 33876 ft 405 kts 240°
2026-05-07 07:17 48.85458 157.64959 33880 ft 405 kts 240°
2026-05-07 07:18 48.81963 157.58247 33881 ft 406 kts 240°
2026-05-07 07:18 48.78461 157.51539 33885 ft 406 kts 240°
2026-05-07 07:19 48.74951 157.44833 33874 ft 406 kts 239°
2026-05-07 07:19 48.71439 157.38138 33884 ft 406 kts 239°
2026-05-07 07:20 48.67941 157.31488 33882 ft 406 kts 239°
2026-05-07 07:20 48.64412 157.24796 33884 ft 407 kts 239°
2026-05-07 07:21 48.60881 157.18116 33880 ft 407 kts 239°
2026-05-07 07:21 48.57344 157.11442 33879 ft 407 kts 239°
2026-05-07 07:22 48.53801 157.04773 33877 ft 407 kts 239°
2026-05-07 07:22 48.50254 156.98113 33885 ft 407 kts 239°
2026-05-07 07:23 48.46701 156.91458 33874 ft 408 kts 239°
2026-05-07 07:23 48.43142 156.84808 33875 ft 407 kts 239°
2026-05-07 07:24 48.39581 156.78172 33874 ft 407 kts 239°
2026-05-07 07:24 48.36014 156.71541 33876 ft 408 kts 239°
2026-05-07 07:25 48.30656 156.61610 33878 ft 408 kts 239°
2026-05-07 07:26 48.27072 156.54988 33877 ft 409 kts 239°
2026-05-07 07:26 48.23486 156.48377 33894 ft 409 kts 239°
2026-05-07 07:27 48.19909 156.41801 33880 ft 409 kts 239°
2026-05-07 07:27 48.16308 156.35196 33887 ft 410 kts 239°
2026-05-07 07:28 48.12696 156.28587 33876 ft 410 kts 239°
2026-05-07 07:28 48.09079 156.21987 33871 ft 410 kts 239°
2026-05-07 07:29 48.05464 156.15404 33867 ft 410 kts 239°
2026-05-07 07:29 48.01839 156.08821 33871 ft 410 kts 238°
2026-05-07 07:30 47.98208 156.02241 33864 ft 411 kts 238°
2026-05-07 07:30 47.94570 155.95667 33860 ft 411 kts 238°
2026-05-07 07:31 47.90926 155.89096 33865 ft 411 kts 238°
2026-05-07 07:31 47.87276 155.82531 33864 ft 412 kts 238°
2026-05-07 07:32 47.83615 155.75963 33863 ft 412 kts 238°
2026-05-07 07:32 47.79952 155.69406 33856 ft 412 kts 238°
2026-05-07 07:33 47.76285 155.62860 33858 ft 412 kts 238°
2026-05-07 07:33 47.72611 155.56316 33856 ft 412 kts 238°
2026-05-07 07:34 47.68958 155.49823 33852 ft 413 kts 238°
2026-05-07 07:34 47.65276 155.43296 33858 ft 413 kts 238°
2026-05-07 07:35 47.61587 155.36773 33855 ft 413 kts 238°
2026-05-07 07:35 47.57891 155.30254 33853 ft 413 kts 238°
2026-05-07 07:36 47.54192 155.23745 33848 ft 413 kts 238°
2026-05-07 07:36 47.50492 155.17248 33853 ft 413 kts 238°
2026-05-07 07:37 47.46785 155.10756 33851 ft 413 kts 238°
2026-05-07 07:37 47.43074 155.04272 33846 ft 413 kts 238°
2026-05-07 07:38 47.39361 154.97800 33848 ft 413 kts 238°
2026-05-07 07:38 47.35638 154.91326 33845 ft 414 kts 238°
2026-05-07 07:39 47.31907 154.84853 33842 ft 414 kts 238°
2026-05-07 07:39 47.28172 154.78389 33844 ft 414 kts 238°
2026-05-07 07:40 47.24434 154.71936 33841 ft 414 kts 238°
2026-05-07 07:40 47.20687 154.65482 33841 ft 414 kts 237°
2026-05-07 07:41 47.16964 154.59085 33842 ft 415 kts 238°
2026-05-07 07:41 47.13210 154.52650 33840 ft 415 kts 237°
2026-05-07 07:42 47.09448 154.46216 33838 ft 415 kts 237°
2026-05-07 07:42 47.05688 154.39802 33833 ft 415 kts 237°
2026-05-07 07:43 47.01921 154.33389 33835 ft 415 kts 237°
2026-05-07 07:43 46.98151 154.26987 33838 ft 415 kts 237°
2026-05-07 07:44 46.94372 154.20585 33829 ft 415 kts 237°
2026-05-07 07:44 46.90590 154.14194 33830 ft 416 kts 237°
2026-05-07 07:45 46.86803 154.07808 33832 ft 416 kts 237°
2026-05-07 07:45 46.83012 154.01430 33828 ft 416 kts 237°
2026-05-07 07:46 46.79218 153.95064 33834 ft 416 kts 237°
2026-05-07 07:46 46.75419 153.88704 33831 ft 416 kts 237°
2026-05-07 07:47 46.71619 153.82356 33828 ft 415 kts 237°
2026-05-07 07:47 46.67813 153.76013 33830 ft 415 kts 237°
2026-05-07 07:48 46.64013 153.69694 33830 ft 415 kts 237°
2026-05-07 07:48 46.60232 153.63423 33833 ft 415 kts 237°
2026-05-07 07:49 46.56423 153.57118 33832 ft 415 kts 237°
2026-05-07 07:49 46.52606 153.50816 33837 ft 415 kts 237°
2026-05-07 07:50 46.48789 153.44527 33831 ft 415 kts 237°
2026-05-07 07:50 46.44967 153.38244 33829 ft 415 kts 237°
2026-05-07 07:51 46.41143 153.31973 33832 ft 415 kts 237°
2026-05-07 07:51 46.37320 153.25719 33834 ft 415 kts 237°
2026-05-07 07:52 46.33490 153.19466 33833 ft 415 kts 237°
2026-05-07 07:52 46.29659 153.13225 33836 ft 415 kts 236°
2026-05-07 07:53 46.25827 153.06995 33840 ft 415 kts 236°
2026-05-07 07:53 46.22638 153.01822 33834 ft 414 kts 236°
2026-05-07 07:54 46.18161 152.94631 33830 ft 414 kts 236°
2026-05-07 07:54 46.14295 152.88480 33842 ft 414 kts 236°
2026-05-07 07:55 46.11059 152.83339 33831 ft 413 kts 236°
2026-05-07 07:55 46.07200 152.77214 33835 ft 413 kts 236°
2026-05-07 07:56 46.03341 152.71099 33836 ft 412 kts 236°
2026-05-07 07:56 45.99482 152.64996 33828 ft 412 kts 236°
2026-05-07 07:57 45.95649 152.58948 33833 ft 412 kts 236°
2026-05-07 07:57 45.91787 152.52869 33835 ft 412 kts 236°
2026-05-07 07:58 45.87923 152.46797 33835 ft 412 kts 236°
2026-05-07 07:58 45.84054 152.40734 33834 ft 412 kts 236°
2026-05-07 07:59 45.80186 152.34686 33835 ft 411 kts 236°
2026-05-07 07:59 45.76319 152.28651 33830 ft 411 kts 236°
2026-05-07 08:00 45.72447 152.22622 33833 ft 411 kts 236°
2026-05-07 08:00 45.68568 152.16596 33833 ft 411 kts 235°
2026-05-07 08:01 45.64690 152.10585 33835 ft 412 kts 235°
2026-05-07 08:01 45.60804 152.04574 33834 ft 412 kts 235°
2026-05-07 08:02 45.56911 151.98566 33829 ft 412 kts 235°
2026-05-07 08:02 45.53040 151.92604 33833 ft 413 kts 235°
2026-05-07 08:03 45.49133 151.86600 33838 ft 413 kts 235°
2026-05-07 08:03 45.45219 151.80599 33832 ft 414 kts 235°
2026-05-07 08:04 45.41297 151.74599 33833 ft 414 kts 235°
2026-05-07 08:04 45.37372 151.68608 33832 ft 414 kts 234°
2026-05-07 08:05 45.33442 151.62623 33837 ft 414 kts 234°
2026-05-07 08:05 45.29508 151.56644 33828 ft 414 kts 234°
2026-05-07 08:06 45.25572 151.50674 33838 ft 414 kts 234°
2026-05-07 08:06 45.21634 151.44716 33842 ft 414 kts 234°
2026-05-07 08:07 45.17696 151.38769 33838 ft 414 kts 234°
2026-05-07 08:07 45.13751 151.32826 33838 ft 414 kts 234°
2026-05-07 08:08 45.09801 151.26886 33842 ft 414 kts 234°
2026-05-07 08:08 45.05852 151.20962 33844 ft 414 kts 234°
2026-05-07 08:09 45.01896 151.15040 33843 ft 414 kts 234°
2026-05-07 08:09 44.97933 151.09119 33850 ft 415 kts 234°
2026-05-07 08:10 44.93960 151.03197 33843 ft 416 kts 233°
2026-05-07 08:10 44.90002 150.97310 33840 ft 416 kts 233°
2026-05-07 08:11 44.86010 150.91386 33853 ft 417 kts 233°
2026-05-07 08:11 44.82008 150.85459 33855 ft 417 kts 233°
2026-05-07 08:12 44.77997 150.79532 33850 ft 418 kts 233°
2026-05-07 08:12 44.73981 150.73610 33849 ft 418 kts 233°
2026-05-07 08:13 44.69956 150.67688 33863 ft 419 kts 233°
2026-05-07 08:13 44.65926 150.61771 33858 ft 419 kts 233°
2026-05-07 08:14 44.61891 150.55860 33853 ft 419 kts 233°
2026-05-07 08:14 44.57850 150.49951 33856 ft 419 kts 233°
2026-05-07 08:15 44.53807 150.44054 33859 ft 420 kts 233°
2026-05-07 08:15 44.49783 150.38197 33859 ft 420 kts 233°
2026-05-07 08:16 44.45728 150.32306 33861 ft 420 kts 233°
2026-05-07 08:16 44.41664 150.26415 33865 ft 420 kts 233°
2026-05-07 08:17 44.37598 150.20534 33870 ft 420 kts 233°
2026-05-07 08:17 44.33531 150.14664 33865 ft 420 kts 233°
2026-05-07 08:18 44.29462 150.08804 33864 ft 420 kts 233°
2026-05-07 08:18 44.25398 150.02964 33869 ft 419 kts 233°
2026-05-07 08:19 44.21336 149.97139 33868 ft 419 kts 233°
2026-05-07 08:19 44.17276 149.91328 33874 ft 418 kts 233°
2026-05-07 08:20 44.13239 149.85561 33877 ft 418 kts 233°
2026-05-07 08:20 44.09182 149.79780 33872 ft 418 kts 233°
2026-05-07 08:21 44.05120 149.74001 33876 ft 417 kts 233°
2026-05-07 08:21 44.01056 149.68233 33883 ft 418 kts 232°
2026-05-07 08:22 43.96988 149.62472 33877 ft 418 kts 232°
2026-05-07 08:22 43.92914 149.56714 33880 ft 418 kts 232°
2026-05-07 08:23 43.88841 149.50968 33882 ft 418 kts 232°
2026-05-07 08:23 43.84762 149.45228 33875 ft 418 kts 232°
2026-05-07 08:24 43.80676 149.39488 33881 ft 418 kts 232°
2026-05-07 08:24 43.76591 149.33763 33883 ft 418 kts 232°
2026-05-07 08:25 43.72500 149.28040 33883 ft 418 kts 232°
2026-05-07 08:25 43.68407 149.22326 33886 ft 418 kts 232°
2026-05-07 08:26 43.62262 149.13771 33881 ft 418 kts 232°
2026-05-07 08:26 43.58162 149.08076 33880 ft 418 kts 232°
2026-05-07 08:27 43.54057 149.02388 33888 ft 418 kts 232°
2026-05-07 08:27 43.49956 148.96716 33885 ft 418 kts 232°
2026-05-07 08:28 43.45874 148.91082 33895 ft 418 kts 232°
2026-05-07 08:28 43.41773 148.85433 33889 ft 417 kts 232°
2026-05-07 08:29 43.37675 148.79800 33886 ft 417 kts 232°
2026-05-07 08:29 43.33575 148.74175 33887 ft 416 kts 232°
2026-05-07 08:30 43.29485 148.68576 33885 ft 416 kts 232°
2026-05-07 08:30 43.25379 148.62965 33886 ft 415 kts 232°
2026-05-07 08:31 43.21281 148.57376 33887 ft 415 kts 232°
2026-05-07 08:31 43.17183 148.51799 33890 ft 415 kts 232°
2026-05-07 08:32 43.13082 148.46229 33891 ft 415 kts 232°
2026-05-07 08:32 43.08970 148.40655 33891 ft 416 kts 232°
2026-05-07 08:33 43.04861 148.35096 33889 ft 416 kts 232°
2026-05-07 08:33 43.00739 148.29531 33891 ft 416 kts 232°
2026-05-07 08:34 42.96613 148.23972 33888 ft 417 kts 232°
2026-05-07 08:34 42.92480 148.18415 33889 ft 417 kts 232°
2026-05-07 08:35 42.88338 148.12856 33902 ft 418 kts 232°
2026-05-07 08:35 42.84192 148.07302 33906 ft 418 kts 232°
2026-05-07 08:36 42.80033 148.01743 33902 ft 419 kts 231°
2026-05-07 08:36 42.75899 147.96228 33896 ft 419 kts 231°
2026-05-07 08:37 42.71734 147.90683 33897 ft 419 kts 231°
2026-05-07 08:37 42.67565 147.85143 33901 ft 419 kts 231°
2026-05-07 08:38 42.63395 147.79613 33902 ft 419 kts 231°
2026-05-07 08:38 42.59219 147.74085 33907 ft 419 kts 231°
2026-05-07 08:39 42.55038 147.68562 33905 ft 420 kts 231°
2026-05-07 08:39 42.50856 147.63048 33905 ft 420 kts 231°
2026-05-07 08:40 42.46664 147.57531 33911 ft 420 kts 231°
2026-05-07 08:40 42.42466 147.52015 33917 ft 420 kts 231°
2026-05-07 08:41 42.38264 147.46508 33920 ft 421 kts 231°
2026-05-07 08:41 42.34060 147.41000 33916 ft 421 kts 231°
2026-05-07 08:42 42.29852 147.35493 33916 ft 421 kts 231°
2026-05-07 08:42 42.25645 147.29997 33917 ft 421 kts 230°
2026-05-07 08:43 42.21425 147.24493 33919 ft 422 kts 230°
2026-05-07 08:43 42.17912 147.19921 33918 ft 422 kts 230°
2026-05-07 08:44 42.13686 147.14430 33919 ft 422 kts 230°
2026-05-07 08:44 42.09450 147.08938 33923 ft 423 kts 230°
2026-05-07 08:45 42.05208 147.03448 33923 ft 423 kts 230°
2026-05-07 08:45 42.00960 146.97959 33923 ft 424 kts 230°
2026-05-07 08:46 41.96702 146.92468 33921 ft 424 kts 230°
2026-05-07 08:46 41.92446 146.86990 33924 ft 424 kts 230°
2026-05-07 08:47 41.88177 146.81506 33928 ft 425 kts 229°
2026-05-07 08:47 41.83909 146.76030 33929 ft 425 kts 229°
2026-05-07 08:48 41.79645 146.70566 33926 ft 425 kts 229°
2026-05-07 08:48 41.75370 146.65099 33931 ft 425 kts 229°
2026-05-07 08:49 41.71085 146.59630 33936 ft 425 kts 229°
2026-05-07 08:49 41.66808 146.54179 33935 ft 425 kts 229°
2026-05-07 08:50 41.62526 146.48735 33937 ft 425 kts 229°
2026-05-07 08:50 41.58242 146.43298 33934 ft 425 kts 229°
2026-05-07 08:51 41.53962 146.37875 33935 ft 424 kts 229°
2026-05-07 08:51 41.49676 146.32457 33936 ft 425 kts 229°
2026-05-07 08:52 41.45413 146.27077 33932 ft 425 kts 229°
2026-05-07 08:52 41.41123 146.21674 33930 ft 425 kts 229°
2026-05-07 08:53 41.36823 146.16269 33938 ft 425 kts 229°
2026-05-07 08:53 41.32526 146.10877 33941 ft 425 kts 229°
2026-05-07 08:54 41.28223 146.05488 33937 ft 425 kts 229°
2026-05-07 08:54 41.23914 146.00102 33927 ft 425 kts 229°
2026-05-07 08:55 41.19597 145.94717 33929 ft 426 kts 229°
2026-05-07 08:55 41.15279 145.89340 33932 ft 426 kts 229°
2026-05-07 08:56 41.10946 145.83954 33934 ft 427 kts 229°
2026-05-07 08:56 41.06603 145.78566 33934 ft 427 kts 229°
2026-05-07 08:57 41.02257 145.73186 33933 ft 428 kts 229°
2026-05-07 08:57 40.97907 145.67809 33932 ft 428 kts 229°
2026-05-07 08:58 40.93539 145.62422 33934 ft 429 kts 229°
2026-05-07 08:58 40.89204 145.57086 33931 ft 429 kts 229°
2026-05-07 08:59 40.84832 145.51714 33930 ft 429 kts 229°
2026-05-07 08:59 40.80455 145.46345 34017 ft 430 kts 228°
2026-05-07 09:00 40.78262 145.43659 34296 ft 429 kts 228°
2026-05-07 09:00 40.76086 145.40998 34642 ft 426 kts 228°
2026-05-07 09:00 40.73919 145.38351 34974 ft 423 kts 228°
2026-05-07 09:00 40.71759 145.35714 35272 ft 422 kts 228°
2026-05-07 09:01 40.69607 145.33087 35515 ft 422 kts 228°
2026-05-07 09:01 40.67454 145.30460 35736 ft 421 kts 228°
2026-05-07 09:01 40.65303 145.27839 35845 ft 423 kts 228°
2026-05-07 09:01 40.63139 145.25205 35883 ft 423 kts 228°
2026-05-07 09:02 40.58837 145.19978 35922 ft 419 kts 228°
2026-05-07 09:02 40.54558 145.14788 35921 ft 417 kts 227°
2026-05-07 09:03 40.50293 145.09622 35929 ft 416 kts 227°
2026-05-07 09:03 40.46060 145.04501 35930 ft 417 kts 227°
2026-05-07 09:04 40.41781 144.99339 35928 ft 419 kts 227°
2026-05-07 09:04 40.37477 144.94163 35931 ft 421 kts 227°
2026-05-07 09:05 40.33153 144.88973 35926 ft 422 kts 227°
2026-05-07 09:05 40.28810 144.83768 35926 ft 424 kts 227°
2026-05-07 09:06 40.24456 144.78558 35925 ft 424 kts 227°
2026-05-07 09:06 40.20091 144.73344 35921 ft 425 kts 227°
2026-05-07 09:07 40.15720 144.68133 35924 ft 425 kts 227°
2026-05-07 09:07 40.11350 144.62931 35922 ft 425 kts 227°
2026-05-07 09:08 40.06978 144.57736 35921 ft 425 kts 227°
2026-05-07 09:08 40.02604 144.52549 35922 ft 425 kts 227°
2026-05-07 09:09 39.98230 144.47371 35926 ft 425 kts 226°
2026-05-07 09:09 39.93850 144.42195 35922 ft 425 kts 226°
2026-05-07 09:10 39.89465 144.37023 35920 ft 425 kts 226°
2026-05-07 09:10 39.85077 144.31857 35922 ft 425 kts 226°
2026-05-07 09:11 39.80690 144.26701 35922 ft 425 kts 226°
2026-05-07 09:11 39.76324 144.21579 35922 ft 425 kts 226°
2026-05-07 09:12 39.71901 144.16398 35917 ft 425 kts 226°
2026-05-07 09:12 39.67500 144.11254 35921 ft 425 kts 226°
2026-05-07 09:13 39.63126 144.06150 35918 ft 426 kts 226°
2026-05-07 09:13 39.58717 144.01015 35920 ft 426 kts 226°
2026-05-07 09:14 39.54302 143.95880 35925 ft 426 kts 226°
2026-05-07 09:14 39.49884 143.90752 35916 ft 427 kts 226°
2026-05-07 09:15 39.45457 143.85623 35919 ft 427 kts 226°
2026-05-07 09:15 39.41021 143.80492 35922 ft 428 kts 226°
2026-05-07 09:16 39.36582 143.75368 35915 ft 428 kts 226°
2026-05-07 09:16 39.32136 143.70244 35924 ft 428 kts 226°
2026-05-07 09:17 39.27688 143.65127 35918 ft 428 kts 226°
2026-05-07 09:17 39.23236 143.60014 35920 ft 429 kts 225°
2026-05-07 09:18 39.18776 143.54901 35915 ft 429 kts 225°
2026-05-07 09:18 39.14318 143.49799 35920 ft 429 kts 225°
2026-05-07 09:19 39.09850 143.44696 35915 ft 429 kts 225°
2026-05-07 09:19 39.05409 143.39631 35918 ft 429 kts 225°
2026-05-07 09:20 39.00934 143.34535 35918 ft 430 kts 225°
2026-05-07 09:20 38.96457 143.29446 35916 ft 430 kts 225°
2026-05-07 09:21 38.91973 143.24359 35919 ft 430 kts 225°
2026-05-07 09:21 38.87692 143.19049 35918 ft 428 kts 229°
2026-05-07 09:22 38.83535 143.13582 35918 ft 428 kts 229°
2026-05-07 09:22 38.79370 143.08121 35917 ft 428 kts 229°
2026-05-07 09:23 38.75197 143.02672 35920 ft 429 kts 229°
2026-05-07 09:23 38.71015 142.97225 35919 ft 429 kts 228°
2026-05-07 09:24 38.66826 142.91781 35921 ft 430 kts 228°
2026-05-07 09:24 38.62623 142.86328 35919 ft 430 kts 228°
2026-05-07 09:25 38.58414 142.80875 35921 ft 431 kts 228°
2026-05-07 09:25 38.54195 142.75420 35921 ft 432 kts 228°
2026-05-07 09:26 38.49962 142.69956 35923 ft 433 kts 228°
2026-05-07 09:26 38.45752 142.64531 35923 ft 434 kts 228°
2026-05-07 09:27 38.41500 142.59062 35919 ft 434 kts 228°
2026-05-07 09:28 38.35080 142.50820 35924 ft 435 kts 228°
2026-05-07 09:28 38.30847 142.45391 35924 ft 435 kts 228°
2026-05-07 09:29 38.26611 142.39882 35920 ft 435 kts 228°
2026-05-07 09:29 38.22378 142.34367 35921 ft 435 kts 228°
2026-05-07 09:30 38.18141 142.28863 35919 ft 436 kts 228°
2026-05-07 09:30 38.13891 142.23358 35920 ft 436 kts 228°
2026-05-07 09:31 38.10360 142.18791 35920 ft 436 kts 227°
2026-05-07 09:31 38.05386 142.12370 35921 ft 437 kts 227°
2026-05-07 09:32 38.01844 142.07804 35919 ft 437 kts 227°
2026-05-07 09:32 37.97577 142.02313 35918 ft 437 kts 227°
2026-05-07 09:33 37.93303 141.96817 35917 ft 438 kts 227°
2026-05-07 09:33 37.89029 141.91329 35916 ft 438 kts 227°
2026-05-07 09:34 37.84747 141.85837 35913 ft 438 kts 227°
2026-05-07 09:34 37.80459 141.80349 35915 ft 439 kts 227°
2026-05-07 09:35 37.76165 141.74863 35914 ft 439 kts 227°
2026-05-07 09:35 37.71865 141.69378 35909 ft 439 kts 227°
2026-05-07 09:36 37.67561 141.63898 35906 ft 440 kts 227°
2026-05-07 09:36 37.63250 141.58419 35910 ft 440 kts 227°
2026-05-07 09:37 37.58961 141.52976 35910 ft 440 kts 227°
2026-05-07 09:37 37.54612 141.47468 35904 ft 441 kts 227°
2026-05-07 09:38 37.50318 141.42039 35910 ft 441 kts 226°
2026-05-07 09:38 37.45986 141.36570 35912 ft 441 kts 226°
2026-05-07 09:39 37.41654 141.31111 35906 ft 441 kts 226°
2026-05-07 09:39 37.37319 141.25658 35911 ft 441 kts 226°
2026-05-07 09:40 37.32977 141.20206 35908 ft 441 kts 226°
2026-05-07 09:40 37.28634 141.14762 35907 ft 441 kts 226°
2026-05-07 09:41 37.24291 141.09325 35910 ft 441 kts 226°
2026-05-07 09:41 37.19933 141.03879 35907 ft 442 kts 226°
2026-05-07 09:42 37.15579 140.98438 35912 ft 442 kts 227°
2026-05-07 09:42 37.11608 140.92558 35913 ft 442 kts 232°
2026-05-07 09:43 37.07763 140.86522 35910 ft 443 kts 232°
2026-05-07 09:43 37.03901 140.80496 35906 ft 444 kts 231°
2026-05-07 09:44 37.00025 140.74482 35902 ft 444 kts 231°
2026-05-07 09:44 36.96165 140.68507 35909 ft 445 kts 231°
2026-05-07 09:45 36.92276 140.62497 35905 ft 445 kts 231°
2026-05-07 09:45 36.88382 140.56491 35908 ft 444 kts 231°
2026-05-07 09:46 36.84490 140.50495 35903 ft 445 kts 231°
2026-05-07 09:46 36.80589 140.44497 35897 ft 445 kts 231°
2026-05-07 09:47 36.76685 140.38504 35898 ft 445 kts 231°
2026-05-07 09:47 36.72953 140.32352 35886 ft 444 kts 237°
2026-05-07 09:48 36.69596 140.25892 35886 ft 444 kts 237°
2026-05-07 09:48 36.66232 140.19443 35892 ft 444 kts 236°
2026-05-07 09:49 36.62846 140.13001 35889 ft 445 kts 236°
2026-05-07 09:49 36.59444 140.06549 35893 ft 446 kts 236°
2026-05-07 09:50 36.56034 140.00102 35892 ft 446 kts 236°
2026-05-07 09:50 36.52610 139.93656 35897 ft 447 kts 236°
2026-05-07 09:51 36.49183 139.87211 35901 ft 447 kts 236°
2026-05-07 09:51 36.45609 139.80880 35904 ft 447 kts 233°
2026-05-07 09:52 36.41897 139.74671 35912 ft 448 kts 233°
2026-05-07 09:52 36.38252 139.68464 35912 ft 448 kts 234°
2026-05-07 09:53 36.34602 139.62198 35918 ft 448 kts 234°
2026-05-07 09:53 36.30950 139.55931 35917 ft 448 kts 234°
2026-05-07 09:54 36.27294 139.49674 35919 ft 448 kts 234°
2026-05-07 09:54 36.23630 139.43418 35920 ft 448 kts 234°
2026-05-07 09:55 36.19966 139.37169 35919 ft 448 kts 234°
2026-05-07 09:55 36.16425 139.30819 35928 ft 449 kts 239°
2026-05-07 09:56 36.13662 139.23892 35928 ft 449 kts 245°
2026-05-07 09:56 36.11079 139.16849 35928 ft 450 kts 244°
2026-05-07 09:57 36.08462 139.09804 35933 ft 451 kts 244°
2026-05-07 09:57 36.05832 139.02774 35929 ft 451 kts 244°
2026-05-07 09:58 36.03191 138.95732 35938 ft 451 kts 244°
2026-05-07 09:58 36.00550 138.88704 35944 ft 451 kts 244°
2026-05-07 09:59 35.97903 138.81673 35950 ft 452 kts 244°
2026-05-07 09:59 35.95251 138.74641 35957 ft 451 kts 244°
2026-05-07 10:00 35.92615 138.67667 35951 ft 452 kts 244°
2026-05-07 10:00 35.89949 138.60625 35958 ft 454 kts 244°
2026-05-07 10:01 35.87265 138.53571 35956 ft 455 kts 244°
2026-05-07 10:01 35.84567 138.46512 35960 ft 455 kts 244°
2026-05-07 10:02 35.81872 138.39461 35960 ft 454 kts 244°
2026-05-07 10:02 35.79198 138.32480 35964 ft 448 kts 244°
2026-05-07 10:03 35.76546 138.25560 35981 ft 446 kts 244°
2026-05-07 10:03 35.73909 138.18669 35962 ft 444 kts 244°
2026-05-07 10:04 35.71269 138.11795 35983 ft 444 kts 244°
2026-05-07 10:04 35.68624 138.04917 35988 ft 445 kts 244°
2026-05-07 10:05 35.65996 137.98030 35980 ft 445 kts 245°
2026-05-07 10:05 35.63488 137.91071 35975 ft 445 kts 246°
2026-05-07 10:06 35.60984 137.84124 35985 ft 444 kts 245°
2026-05-07 10:06 35.58456 137.77217 35977 ft 443 kts 245°
2026-05-07 10:07 35.55862 137.70378 35978 ft 441 kts 244°
2026-05-07 10:07 35.53283 137.63609 35970 ft 441 kts 245°
2026-05-07 10:08 35.50691 137.56788 35977 ft 440 kts 245°
2026-05-07 10:08 35.48102 137.49980 35979 ft 440 kts 244°
2026-05-07 10:09 35.45514 137.43189 35968 ft 439 kts 244°
2026-05-07 10:09 35.42936 137.36402 35954 ft 439 kts 244°
2026-05-07 10:10 35.40359 137.29629 35956 ft 438 kts 244°
2026-05-07 10:10 35.37804 137.22857 35945 ft 438 kts 245°
2026-05-07 10:11 35.35357 137.16035 35939 ft 437 kts 246°
2026-05-07 10:11 35.32917 137.09220 35927 ft 437 kts 245°
2026-05-07 10:12 35.30462 137.02423 35929 ft 436 kts 245°
2026-05-07 10:12 35.28000 136.95633 35922 ft 436 kts 245°
2026-05-07 10:13 35.25821 136.88718 35921 ft 437 kts 253°
2026-05-07 10:13 35.24245 136.81538 35921 ft 437 kts 253°
2026-05-07 10:14 35.22657 136.74369 35924 ft 437 kts 253°
2026-05-07 10:14 35.21051 136.67207 35921 ft 437 kts 253°
2026-05-07 10:15 35.19437 136.60052 35915 ft 436 kts 252°
2026-05-07 10:15 35.17825 136.52929 35925 ft 435 kts 253°
2026-05-07 10:16 35.16208 136.45802 35947 ft 435 kts 252°
2026-05-07 10:16 35.14585 136.38672 35915 ft 435 kts 253°
2026-05-07 10:17 35.12967 136.31576 35924 ft 433 kts 253°
2026-05-07 10:17 35.11360 136.24556 35920 ft 431 kts 252°
2026-05-07 10:18 35.09744 136.17510 35916 ft 430 kts 252°
2026-05-07 10:18 35.08132 136.10489 35915 ft 429 kts 252°
2026-05-07 10:19 35.06519 136.03486 35920 ft 428 kts 252°
2026-05-07 10:19 35.05177 135.97668 35916 ft 428 kts 252°
2026-05-07 10:20 35.03565 135.90669 35920 ft 428 kts 252°
2026-05-07 10:20 35.01948 135.83671 35916 ft 428 kts 252°
2026-05-07 10:21 35.00560 135.76603 35919 ft 429 kts 255°
2026-05-07 10:21 34.99271 135.69487 35916 ft 429 kts 255°
2026-05-07 10:22 34.97972 135.62383 35919 ft 429 kts 255°
2026-05-07 10:22 34.96659 135.55287 35919 ft 429 kts 255°
2026-05-07 10:23 34.95339 135.48190 35921 ft 430 kts 255°
2026-05-07 10:23 34.94013 135.41081 35924 ft 430 kts 255°
2026-05-07 10:24 34.92677 135.33979 35914 ft 430 kts 254°
2026-05-07 10:24 34.91291 135.26903 35915 ft 429 kts 254°
2026-05-07 10:25 34.89897 135.19849 35920 ft 428 kts 254°
2026-05-07 10:25 34.88509 135.12807 35929 ft 427 kts 254°
2026-05-07 10:26 34.87124 135.05782 35924 ft 426 kts 254°
2026-05-07 10:26 34.85736 134.98769 35931 ft 426 kts 254°
2026-05-07 10:27 34.84405 134.91743 35924 ft 426 kts 255°
2026-05-07 10:27 34.83090 134.84706 35928 ft 426 kts 255°
2026-05-07 10:28 34.81773 134.77721 35929 ft 426 kts 254°
2026-05-07 10:28 34.80443 134.70703 35920 ft 425 kts 254°
2026-05-07 10:29 34.79106 134.63691 35933 ft 425 kts 254°
2026-05-07 10:29 34.77761 134.56702 35934 ft 424 kts 254°
2026-05-07 10:30 34.75738 134.46232 35930 ft 423 kts 254°
2026-05-07 10:30 34.74399 134.39265 35931 ft 423 kts 254°
2026-05-07 10:31 34.73071 134.32297 35925 ft 423 kts 254°
2026-05-07 10:31 34.71738 134.25337 35924 ft 423 kts 254°
2026-05-07 10:32 34.70395 134.18381 35922 ft 422 kts 254°
2026-05-07 10:32 34.69041 134.11437 35915 ft 422 kts 254°
2026-05-07 10:33 34.67686 134.04497 35917 ft 422 kts 254°
2026-05-07 10:33 34.65979 133.97709 35913 ft 420 kts 248°
2026-05-07 10:34 34.63917 133.91081 35919 ft 420 kts 248°
2026-05-07 10:34 34.61870 133.84442 35911 ft 420 kts 248°
2026-05-07 10:35 34.59828 133.77802 35920 ft 420 kts 248°
2026-05-07 10:35 34.57780 133.71151 35926 ft 421 kts 248°
2026-05-07 10:36 34.55727 133.64500 35920 ft 421 kts 248°
2026-05-07 10:36 34.53633 133.57861 35927 ft 421 kts 247°
2026-05-07 10:37 34.51446 133.51261 35929 ft 422 kts 246°
2026-05-07 10:37 34.49274 133.44693 35920 ft 423 kts 247°
2026-05-07 10:38 34.47091 133.38074 35921 ft 423 kts 247°
2026-05-07 10:38 34.44985 133.31430 35931 ft 423 kts 248°
2026-05-07 10:39 34.42901 133.24770 35930 ft 423 kts 248°
2026-05-07 10:39 34.40798 133.18113 35933 ft 423 kts 248°
2026-05-07 10:40 34.38679 133.11457 35941 ft 423 kts 248°
2026-05-07 10:40 34.36555 133.04813 35945 ft 423 kts 248°
2026-05-07 10:41 34.34427 132.98160 35942 ft 424 kts 248°
2026-05-07 10:41 34.32295 132.91503 35940 ft 425 kts 248°
2026-05-07 10:42 34.30161 132.84829 35932 ft 426 kts 248°
2026-05-07 10:42 34.28044 132.78123 35930 ft 427 kts 248°
2026-05-07 10:43 34.25921 132.71406 35939 ft 428 kts 248°
2026-05-07 10:43 34.23798 132.64713 35931 ft 430 kts 248°
2026-05-07 10:44 34.21651 132.57963 35922 ft 432 kts 248°
2026-05-07 10:44 34.19497 132.51181 35918 ft 434 kts 248°
2026-05-07 10:45 34.17338 132.44360 35921 ft 434 kts 248°
2026-05-07 10:45 34.15179 132.37548 35928 ft 435 kts 248°
2026-05-07 10:46 34.13008 132.30715 35926 ft 436 kts 248°
2026-05-07 10:46 34.10832 132.23882 35919 ft 436 kts 248°
2026-05-07 10:47 34.08649 132.17044 35924 ft 437 kts 248°
2026-05-07 10:47 34.06823 132.10040 35924 ft 439 kts 254°
2026-05-07 10:48 34.05280 132.02925 35924 ft 439 kts 254°
2026-05-07 10:48 34.03710 131.95785 35926 ft 440 kts 254°
2026-05-07 10:49 34.02121 131.88636 35921 ft 442 kts 254°
2026-05-07 10:49 34.00522 131.81466 35918 ft 444 kts 254°
2026-05-07 10:50 33.98909 131.74258 35920 ft 447 kts 255°
2026-05-07 10:50 33.97276 131.66998 35924 ft 450 kts 255°
2026-05-07 10:51 33.95630 131.59700 35923 ft 453 kts 255°
2026-05-07 10:51 33.93974 131.52368 35913 ft 455 kts 255°
2026-05-07 10:52 33.92307 131.45011 35912 ft 456 kts 255°
2026-05-07 10:52 33.90635 131.37653 35911 ft 456 kts 255°
2026-05-07 10:53 33.88956 131.30284 35908 ft 457 kts 255°
2026-05-07 10:53 33.87268 131.22899 35913 ft 458 kts 255°
2026-05-07 10:54 33.85560 131.15498 35910 ft 460 kts 255°
2026-05-07 10:54 33.83836 131.08069 35912 ft 462 kts 255°
2026-05-07 10:55 33.82102 131.00613 35913 ft 464 kts 255°
2026-05-07 10:55 33.80369 130.93181 35911 ft 465 kts 255°
2026-05-07 10:56 33.78614 130.85671 35917 ft 467 kts 256°
2026-05-07 10:56 33.76850 130.78141 35918 ft 469 kts 256°
2026-05-07 10:57 33.75075 130.70592 35918 ft 470 kts 256°
2026-05-07 10:57 33.73290 130.63021 35917 ft 471 kts 256°
2026-05-07 10:58 33.71498 130.55443 35917 ft 471 kts 256°
2026-05-07 10:58 33.69701 130.47864 35912 ft 472 kts 256°
2026-05-07 10:59 33.67552 130.40427 35910 ft 474 kts 246°
2026-05-07 10:59 33.64251 130.33546 35910 ft 477 kts 236°
2026-05-07 11:00 33.60228 130.27200 35922 ft 478 kts 234°
2026-05-07 11:00 33.56145 130.20881 35917 ft 479 kts 235°
2026-05-07 11:01 33.52115 130.14582 35922 ft 480 kts 235°
2026-05-07 11:01 33.48066 130.08217 35934 ft 481 kts 235°
2026-05-07 11:02 33.44006 130.01838 35931 ft 481 kts 235°
2026-05-07 11:02 33.39944 129.95471 35936 ft 481 kts 235°
2026-05-07 11:03 33.35879 129.89110 35941 ft 481 kts 235°
2026-05-07 11:03 33.31805 129.82746 35941 ft 482 kts 235°
2026-05-07 11:04 33.27730 129.76393 35945 ft 481 kts 235°
2026-05-07 11:04 33.23649 129.70040 35938 ft 482 kts 235°
2026-05-07 11:05 33.20019 129.63380 35946 ft 477 kts 245°
2026-05-07 11:05 33.17381 129.56140 35948 ft 475 kts 251°
2026-05-07 11:06 33.15350 129.50061 35943 ft 475 kts 251°
2026-05-07 11:06 33.12882 129.42752 35944 ft 475 kts 250°
2026-05-07 11:07 33.10386 129.35457 35946 ft 475 kts 250°
2026-05-07 11:07 33.07881 129.28180 35950 ft 474 kts 250°
2026-05-07 11:08 33.05371 129.20907 35942 ft 474 kts 250°
2026-05-07 11:08 33.02859 129.13639 35953 ft 474 kts 250°
2026-05-07 11:09 33.00347 129.06385 35952 ft 473 kts 250°
2026-05-07 11:09 32.97831 128.99136 35950 ft 473 kts 250°
2026-05-07 11:10 32.95314 128.91902 35951 ft 473 kts 250°
2026-05-07 11:10 32.92809 128.84717 35950 ft 473 kts 250°
2026-05-07 11:11 32.90288 128.77497 35950 ft 472 kts 250°
2026-05-07 11:11 32.87763 128.70284 35951 ft 472 kts 250°
2026-05-07 11:12 32.85247 128.63082 35950 ft 472 kts 250°
2026-05-07 11:12 32.82728 128.55872 35951 ft 472 kts 250°
2026-05-07 11:13 32.80208 128.48679 35959 ft 471 kts 250°
2026-05-07 11:13 32.77683 128.41486 35960 ft 471 kts 250°
2026-05-07 11:14 32.75156 128.34302 35961 ft 471 kts 250°
2026-05-07 11:14 32.72628 128.27131 35963 ft 471 kts 250°
2026-05-07 11:15 32.70082 128.19965 35964 ft 471 kts 250°
2026-05-07 11:15 32.67524 128.12815 35961 ft 470 kts 250°
2026-05-07 11:16 32.64965 128.05670 35962 ft 470 kts 250°
2026-05-07 11:16 32.62424 127.98585 35962 ft 470 kts 250°
2026-05-07 11:17 32.59864 127.91460 35965 ft 469 kts 250°
2026-05-07 11:17 32.57302 127.84342 35967 ft 469 kts 250°
2026-05-07 11:18 32.54738 127.77236 35972 ft 469 kts 250°
2026-05-07 11:18 32.52172 127.70140 35968 ft 468 kts 250°
2026-05-07 11:19 32.49604 127.63051 35970 ft 468 kts 250°
2026-05-07 11:19 32.47033 127.55973 35968 ft 468 kts 250°
2026-05-07 11:20 32.44461 127.48903 35965 ft 467 kts 250°
2026-05-07 11:20 32.41889 127.41847 36025 ft 461 kts 249°
2026-05-07 11:21 32.40639 127.38431 35967 ft 444 kts 249°
2026-05-07 11:21 32.39434 127.35145 35958 ft 429 kts 249°
2026-05-07 11:21 32.37073 127.28690 35979 ft 431 kts 249°
2026-05-07 11:22 32.34663 127.22104 35982 ft 441 kts 249°
2026-05-07 11:22 32.32217 127.15448 35974 ft 441 kts 249°
2026-05-07 11:23 32.29770 127.08802 35976 ft 440 kts 249°
2026-05-07 11:23 32.27542 127.02084 35982 ft 437 kts 255°
2026-05-07 11:24 32.26031 126.95154 35984 ft 435 kts 257°
2026-05-07 11:24 32.24529 126.88233 35980 ft 435 kts 257°
2026-05-07 11:25 32.23008 126.81328 35980 ft 434 kts 257°
2026-05-07 11:25 32.21481 126.74427 35983 ft 434 kts 257°
2026-05-07 11:26 32.19951 126.67530 35982 ft 434 kts 257°
2026-05-07 11:26 32.18445 126.60675 35984 ft 434 kts 257°
2026-05-07 11:27 32.16948 126.53713 35981 ft 435 kts 257°
2026-05-07 11:27 32.15457 126.46801 35989 ft 435 kts 257°
2026-05-07 11:28 32.13967 126.39928 35985 ft 435 kts 257°
2026-05-07 11:28 32.12461 126.33008 35985 ft 436 kts 257°
2026-05-07 11:29 32.10950 126.26086 35986 ft 436 kts 257°
2026-05-07 11:29 32.09435 126.19163 35986 ft 436 kts 257°
2026-05-07 11:30 32.07918 126.12246 35993 ft 435 kts 257°
2026-05-07 11:30 32.06397 126.05335 35991 ft 435 kts 257°
2026-05-07 11:31 32.04912 125.98424 35992 ft 435 kts 257°
2026-05-07 11:31 32.03439 125.91511 35992 ft 435 kts 257°
2026-05-07 11:32 32.01215 125.81153 35992 ft 435 kts 257°
2026-05-07 11:33 31.99711 125.74245 35994 ft 435 kts 256°
2026-05-07 11:33 31.98177 125.67355 35993 ft 435 kts 256°
2026-05-07 11:34 31.96647 125.60508 35992 ft 435 kts 256°
2026-05-07 11:34 31.95107 125.53619 35993 ft 435 kts 256°
2026-05-07 11:35 31.93565 125.46727 35995 ft 435 kts 256°
2026-05-07 11:35 31.92017 125.39829 35993 ft 435 kts 256°
2026-05-07 11:36 31.90468 125.32941 35994 ft 435 kts 256°
2026-05-07 11:36 31.88916 125.26062 35992 ft 435 kts 256°
2026-05-07 11:37 31.87361 125.19190 35995 ft 435 kts 256°
2026-05-07 11:37 31.85803 125.12321 35995 ft 434 kts 256°
2026-05-07 11:38 31.84245 125.05464 35995 ft 434 kts 256°
2026-05-07 11:38 31.82688 124.98619 35997 ft 433 kts 256°
2026-05-07 11:39 31.81196 124.91765 35999 ft 433 kts 257°
2026-05-07 11:39 31.79726 124.84916 35995 ft 432 kts 257°
2026-05-07 11:40 31.78254 124.78108 35999 ft 432 kts 257°
2026-05-07 11:40 31.76767 124.71272 35993 ft 432 kts 257°
2026-05-07 11:41 31.75275 124.64442 36000 ft 431 kts 257°
2026-05-07 11:41 31.73781 124.57620 35999 ft 431 kts 256°
2026-05-07 11:42 31.72281 124.50793 35997 ft 431 kts 256°
2026-05-07 11:42 31.70781 124.43981 35991 ft 431 kts 256°
2026-05-07 11:43 31.69277 124.37167 35993 ft 431 kts 256°
2026-05-07 11:43 31.67771 124.30366 36001 ft 431 kts 256°
2026-05-07 11:44 31.66260 124.23561 35997 ft 430 kts 256°
2026-05-07 11:44 31.64749 124.16771 36001 ft 430 kts 256°
2026-05-07 11:45 31.63232 124.09975 36001 ft 430 kts 256°
2026-05-07 11:45 31.61715 124.03189 35984 ft 430 kts 256°
2026-05-07 11:46 31.60201 123.96396 35997 ft 430 kts 256°
2026-05-07 11:46 31.58719 123.89596 35995 ft 430 kts 256°
2026-05-07 11:47 31.57234 123.82791 35995 ft 431 kts 256°
2026-05-07 11:47 31.55751 123.76028 35995 ft 431 kts 256°
2026-05-07 11:48 31.54253 123.69223 35997 ft 432 kts 256°
2026-05-07 11:48 31.52745 123.62395 35998 ft 432 kts 256°
2026-05-07 11:49 31.51234 123.55565 35997 ft 433 kts 256°
2026-05-07 11:49 31.49723 123.48724 35995 ft 434 kts 257°
2026-05-07 11:50 31.48391 123.41828 35997 ft 435 kts 258°
2026-05-07 11:50 31.47116 123.34893 36002 ft 436 kts 258°
2026-05-07 11:51 31.45816 123.27956 36000 ft 437 kts 258°
2026-05-07 11:51 31.44495 123.21014 35994 ft 437 kts 258°
2026-05-07 11:52 31.43166 123.14075 35994 ft 436 kts 258°
2026-05-07 11:52 31.41838 123.07160 35994 ft 435 kts 258°
2026-05-07 11:53 31.40507 123.00250 35993 ft 434 kts 258°
2026-05-07 11:53 31.39176 122.93359 35998 ft 433 kts 258°
2026-05-07 11:54 31.37855 122.86537 35994 ft 433 kts 259°
2026-05-07 11:54 31.36513 122.79624 35998 ft 432 kts 259°
2026-05-07 11:55 31.35199 122.72821 36005 ft 431 kts 259°
2026-05-07 11:55 31.33895 122.65969 36003 ft 431 kts 259°
2026-05-07 11:56 31.32589 122.59128 36008 ft 431 kts 259°
2026-05-07 11:56 31.31489 122.53397 36007 ft 431 kts 259°
2026-05-07 11:57 31.30181 122.46596 36014 ft 431 kts 259°
2026-05-07 11:57 31.28874 122.39756 36016 ft 431 kts 259°
2026-05-07 11:58 31.27595 122.32936 36023 ft 431 kts 259°
2026-05-07 11:58 31.26308 122.26079 36022 ft 430 kts 259°
2026-05-07 11:59 31.25020 122.19255 36026 ft 430 kts 259°
2026-05-07 11:59 31.23728 122.12439 36029 ft 430 kts 259°
2026-05-07 12:00 31.22433 122.05629 36027 ft 429 kts 259°
2026-05-07 12:00 31.21136 121.98825 36023 ft 429 kts 259°
2026-05-07 12:01 31.19836 121.92029 36023 ft 429 kts 259°
2026-05-07 12:01 31.18534 121.85237 36022 ft 428 kts 259°
2026-05-07 12:02 31.17248 121.78438 36014 ft 428 kts 261°
2026-05-07 12:02 31.16434 121.71583 36023 ft 426 kts 264°
2026-05-07 12:03 31.15698 121.64714 36025 ft 427 kts 264°
2026-05-07 12:03 31.14944 121.57840 36019 ft 427 kts 264°
2026-05-07 12:04 31.14180 121.50966 36019 ft 427 kts 264°
2026-05-07 12:04 31.13413 121.44102 36021 ft 427 kts 264°
2026-05-07 12:05 31.12640 121.37228 36019 ft 427 kts 264°
2026-05-07 12:05 31.11373 121.30448 36018 ft 430 kts 256°
2026-05-07 12:06 31.09596 121.23792 36018 ft 430 kts 256°
2026-05-07 12:06 31.07853 121.17130 36014 ft 429 kts 256°
2026-05-07 12:07 31.06173 121.10502 36016 ft 429 kts 257°
2026-05-07 12:07 31.04561 121.03812 36015 ft 428 kts 257°
2026-05-07 12:08 31.02944 120.97125 36021 ft 428 kts 257°
2026-05-07 12:08 31.01313 120.90440 36014 ft 428 kts 257°
2026-05-07 12:09 30.99677 120.83766 36013 ft 428 kts 257°
2026-05-07 12:09 30.98038 120.77091 36008 ft 428 kts 257°
2026-05-07 12:10 30.96404 120.70422 36027 ft 428 kts 257°
2026-05-07 12:10 30.94778 120.63745 36027 ft 428 kts 257°
2026-05-07 12:11 30.93151 120.57075 36029 ft 428 kts 257°
2026-05-07 12:11 30.91518 120.50406 36029 ft 428 kts 257°
2026-05-07 12:12 30.88964 120.44125 36033 ft 437 kts 240°
2026-05-07 12:12 30.84847 120.38821 36008 ft 452 kts 224°
2026-05-07 12:13 30.79677 120.34574 36021 ft 456 kts 221°
2026-05-07 12:13 30.74477 120.30436 36019 ft 455 kts 222°
2026-05-07 12:14 30.69288 120.26226 36019 ft 454 kts 223°
2026-05-07 12:14 30.64130 120.21996 36013 ft 454 kts 223°
2026-05-07 12:15 30.58974 120.17767 36014 ft 453 kts 223°
2026-05-07 12:15 30.53821 120.13549 36016 ft 453 kts 223°
2026-05-07 12:16 30.48671 120.09340 36020 ft 453 kts 223°
2026-05-07 12:16 30.43502 120.05155 36018 ft 455 kts 221°
2026-05-07 12:17 30.38011 120.01424 36017 ft 458 kts 217°
2026-05-07 12:17 30.32466 119.97782 36011 ft 458 kts 217°
2026-05-07 12:18 30.26929 119.94123 36010 ft 458 kts 218°
2026-05-07 12:18 30.21410 119.90462 36013 ft 458 kts 218°
2026-05-07 12:19 30.15887 119.86802 36016 ft 457 kts 218°
2026-05-07 12:19 30.10360 119.83144 36011 ft 458 kts 218°
2026-05-07 12:20 30.04828 119.79488 35999 ft 458 kts 218°
2026-05-07 12:20 29.99321 119.75799 36015 ft 456 kts 218°
2026-05-07 12:21 29.93880 119.72128 35996 ft 456 kts 218°
2026-05-07 12:21 29.88410 119.68453 36006 ft 455 kts 218°
2026-05-07 12:22 29.83053 119.64634 36015 ft 450 kts 222°
2026-05-07 12:22 29.77896 119.60552 36020 ft 450 kts 222°
2026-05-07 12:23 29.72714 119.56457 36013 ft 452 kts 222°
2026-05-07 12:23 29.67516 119.52380 35998 ft 453 kts 221°
2026-05-07 12:24 29.62577 119.47987 35993 ft 445 kts 229°
2026-05-07 12:24 29.58366 119.42864 35996 ft 440 kts 234°
2026-05-07 12:25 29.54301 119.37597 36005 ft 441 kts 234°
2026-05-07 12:25 29.50182 119.32366 36028 ft 442 kts 234°
2026-05-07 12:26 29.46043 119.27134 35994 ft 443 kts 234°
2026-05-07 12:26 29.41912 119.21905 36023 ft 442 kts 234°
2026-05-07 12:27 29.37805 119.16708 36014 ft 443 kts 234°
2026-05-07 12:27 29.33659 119.11475 36012 ft 443 kts 234°
2026-05-07 12:28 29.29514 119.06250 36014 ft 443 kts 234°
2026-05-07 12:28 29.25378 119.01042 36015 ft 443 kts 234°
2026-05-07 12:29 29.21231 118.95818 36021 ft 441 kts 234°
2026-05-07 12:29 29.17100 118.90629 36026 ft 441 kts 234°
2026-05-07 12:30 29.12967 118.85436 35999 ft 442 kts 233°
2026-05-07 12:30 29.08810 118.80228 36005 ft 444 kts 233°
2026-05-07 12:31 29.04644 118.75012 36001 ft 445 kts 233°
2026-05-07 12:31 29.00471 118.69793 35998 ft 445 kts 233°
2026-05-07 12:32 28.96294 118.64579 36003 ft 445 kts 233°
2026-05-07 12:32 28.92113 118.59364 35998 ft 445 kts 233°
2026-05-07 12:33 28.85867 118.51583 35993 ft 445 kts 233°
2026-05-07 12:33 28.81683 118.46384 35985 ft 445 kts 233°
2026-05-07 12:34 28.77497 118.41187 35995 ft 445 kts 233°
2026-05-07 12:34 28.73317 118.36004 35984 ft 445 kts 233°
2026-05-07 12:35 28.69108 118.30791 35990 ft 446 kts 233°
2026-05-07 12:35 28.64905 118.25591 35985 ft 446 kts 233°
2026-05-07 12:36 28.60691 118.20385 35983 ft 447 kts 233°
2026-05-07 12:36 28.56473 118.15180 35989 ft 448 kts 233°
2026-05-07 12:37 28.52243 118.09969 35981 ft 448 kts 233°
2026-05-07 12:37 28.48010 118.04758 35999 ft 449 kts 232°
2026-05-07 12:38 28.43774 117.99550 35975 ft 449 kts 232°
2026-05-07 12:38 28.39508 117.94358 35988 ft 450 kts 232°
2026-05-07 12:39 28.35168 117.89242 35983 ft 450 kts 231°
2026-05-07 12:39 28.30811 117.84133 35985 ft 450 kts 231°
2026-05-07 12:40 28.26460 117.79018 35989 ft 450 kts 231°
2026-05-07 12:40 28.22109 117.73897 35979 ft 451 kts 231°
2026-05-07 12:41 28.17755 117.68776 35978 ft 451 kts 231°
2026-05-07 12:41 28.13392 117.63653 35982 ft 452 kts 231°
2026-05-07 12:42 28.09022 117.58527 35986 ft 452 kts 231°
2026-05-07 12:42 28.04644 117.53396 35993 ft 453 kts 231°
2026-05-07 12:43 28.00991 117.49121 35980 ft 455 kts 231°
2026-05-07 12:43 27.95884 117.43155 35988 ft 454 kts 231°
2026-05-07 12:44 27.91489 117.38027 35999 ft 454 kts 231°
2026-05-07 12:44 27.87805 117.33732 35978 ft 454 kts 231°
2026-05-07 12:45 27.83409 117.28613 35994 ft 453 kts 231°
2026-05-07 12:45 27.79017 117.23507 35979 ft 453 kts 231°
2026-05-07 12:46 27.74653 117.18437 35981 ft 454 kts 231°
2026-05-07 12:46 27.70243 117.13320 35987 ft 455 kts 231°
2026-05-07 12:47 27.65827 117.08203 35983 ft 455 kts 231°
2026-05-07 12:47 27.61410 117.03091 35974 ft 455 kts 231°
2026-05-07 12:48 27.56993 116.97982 35985 ft 455 kts 231°
2026-05-07 12:48 27.52569 116.92875 35966 ft 456 kts 231°
2026-05-07 12:49 27.48165 116.87753 35975 ft 455 kts 231°
2026-05-07 12:49 27.43774 116.82604 35976 ft 455 kts 231°
2026-05-07 12:50 27.39392 116.77472 35977 ft 455 kts 231°
2026-05-07 12:50 27.35004 116.72348 35984 ft 455 kts 231°
2026-05-07 12:51 27.30614 116.67227 35971 ft 455 kts 231°
2026-05-07 12:51 27.26218 116.62106 35977 ft 455 kts 231°
2026-05-07 12:52 27.21818 116.56985 35976 ft 455 kts 231°
2026-05-07 12:52 27.17492 116.51858 35983 ft 455 kts 232°
2026-05-07 12:53 27.13204 116.46631 35980 ft 455 kts 232°
2026-05-07 12:53 27.08902 116.41399 35987 ft 456 kts 232°
2026-05-07 12:54 27.04586 116.36179 35969 ft 456 kts 232°
2026-05-07 12:54 27.00263 116.30962 35980 ft 456 kts 232°
2026-05-07 12:55 26.95939 116.25747 35975 ft 457 kts 232°
2026-05-07 12:55 26.91601 116.20523 35964 ft 458 kts 232°
2026-05-07 12:56 26.87283 116.15280 35985 ft 458 kts 232°
2026-05-07 12:56 26.82968 116.10022 35977 ft 459 kts 232°
2026-05-07 12:57 26.78646 116.04765 35975 ft 460 kts 232°
2026-05-07 12:57 26.74304 115.99492 35975 ft 460 kts 232°
2026-05-07 12:58 26.69962 115.94227 35978 ft 460 kts 232°
2026-05-07 12:58 26.65647 115.89004 35973 ft 460 kts 232°
2026-05-07 12:59 26.61298 115.83745 35968 ft 461 kts 232°
2026-05-07 12:59 26.56948 115.78490 35967 ft 460 kts 232°
2026-05-07 13:00 26.52596 115.73240 35975 ft 460 kts 232°
2026-05-07 13:00 26.48249 115.68000 35978 ft 460 kts 232°
2026-05-07 13:01 26.43891 115.62754 35970 ft 461 kts 232°
2026-05-07 13:01 26.39527 115.57509 35958 ft 462 kts 232°
2026-05-07 13:02 26.35164 115.52270 35988 ft 461 kts 232°
2026-05-07 13:02 26.30795 115.47029 35982 ft 461 kts 232°
2026-05-07 13:03 26.26428 115.41799 35958 ft 461 kts 232°
2026-05-07 13:03 26.22058 115.36570 35957 ft 461 kts 232°
2026-05-07 13:04 26.17685 115.31345 35956 ft 461 kts 232°
2026-05-07 13:04 26.13308 115.26120 35953 ft 461 kts 232°
2026-05-07 13:05 26.08930 115.20900 35970 ft 461 kts 232°
2026-05-07 13:05 26.04587 115.15727 35966 ft 461 kts 232°
2026-05-07 13:06 26.00199 115.10508 35961 ft 461 kts 231°
2026-05-07 13:06 25.95813 115.05297 35967 ft 461 kts 231°
2026-05-07 13:07 25.91430 115.00094 35964 ft 461 kts 231°
2026-05-07 13:07 25.87046 114.94895 35970 ft 461 kts 231°
2026-05-07 13:08 25.82465 114.89933 35956 ft 467 kts 221°
2026-05-07 13:08 25.76673 114.86484 35968 ft 480 kts 206°
2026-05-07 13:09 25.70137 114.84654 35963 ft 488 kts 198°
2026-05-07 13:09 25.63477 114.83120 35960 ft 489 kts 198°
2026-05-07 13:10 25.56838 114.81542 35959 ft 489 kts 198°
2026-05-07 13:10 25.50190 114.79905 35950 ft 489 kts 199°
2026-05-07 13:11 25.43546 114.78251 35948 ft 489 kts 199°
2026-05-07 13:11 25.36901 114.76601 35956 ft 489 kts 199°
2026-05-07 13:12 25.30255 114.74957 35944 ft 490 kts 198°
2026-05-07 13:12 25.23588 114.73310 35943 ft 490 kts 198°
2026-05-07 13:13 25.16930 114.71667 35949 ft 491 kts 198°
2026-05-07 13:13 25.10256 114.70020 35938 ft 491 kts 198°
2026-05-07 13:14 25.03577 114.68377 35939 ft 491 kts 198°
2026-05-07 13:14 24.96911 114.66736 35937 ft 491 kts 198°
2026-05-07 13:15 24.90243 114.65096 35947 ft 490 kts 198°
2026-05-07 13:15 24.83592 114.63470 35948 ft 490 kts 198°
2026-05-07 13:16 24.76924 114.61855 35940 ft 491 kts 198°
2026-05-07 13:16 24.70424 114.59873 35953 ft 484 kts 206°
2026-05-07 13:17 24.64392 114.56705 35954 ft 477 kts 215°
2026-05-07 13:17 24.58673 114.53006 35951 ft 477 kts 216°
2026-05-07 13:18 24.52927 114.49328 35937 ft 478 kts 215°
2026-05-07 13:18 24.47150 114.45681 35943 ft 479 kts 215°
2026-05-07 13:19 24.41972 114.41319 35964 ft 464 kts 233°
2026-05-07 13:19 24.38527 114.35448 35967 ft 454 kts 251°
2026-05-07 13:20 24.36247 114.28985 35959 ft 456 kts 252°
2026-05-07 13:20 24.33947 114.22527 35953 ft 458 kts 251°
2026-05-07 13:21 24.31571 114.16039 35958 ft 459 kts 251°
2026-05-07 13:21 24.28917 114.09653 35945 ft 464 kts 240°
2026-05-07 13:22 24.24648 114.04284 35947 ft 472 kts 225°
2026-05-07 13:22 24.19125 114.00263 35939 ft 480 kts 216°
2026-05-07 13:23 24.13434 113.96447 35937 ft 479 kts 217°
2026-05-07 13:23 24.08136 113.92108 35932 ft 472 kts 226°
2026-05-07 13:24 24.03280 113.87267 35942 ft 472 kts 226°
2026-05-07 13:24 23.98417 113.82434 35932 ft 473 kts 226°
2026-05-07 13:25 23.93526 113.77618 35934 ft 473 kts 226°
2026-05-07 13:25 23.88616 113.72804 35932 ft 474 kts 226°
2026-05-07 13:26 23.83705 113.67994 35924 ft 475 kts 226°
2026-05-07 13:26 23.78815 113.63207 35918 ft 475 kts 226°
2026-05-07 13:27 23.73893 113.58394 35916 ft 476 kts 225°
2026-05-07 13:27 23.68959 113.53574 35918 ft 476 kts 225°
2026-05-07 13:28 23.64022 113.48753 35922 ft 477 kts 225°
2026-05-07 13:28 23.59067 113.43923 35929 ft 478 kts 225°
2026-05-07 13:29 23.53795 113.39469 35933 ft 483 kts 214°
2026-05-07 13:29 23.47756 113.36193 35939 ft 490 kts 204°
2026-05-07 13:30 23.44524 113.34939 35350 ft 500 kts 202°
2026-05-07 13:30 23.41250 113.33730 34504 ft 488 kts 201°
2026-05-07 13:30 23.38086 113.32579 33609 ft 472 kts 201°
2026-05-07 13:30 23.35017 113.31450 32647 ft 459 kts 202°
2026-05-07 13:31 23.32014 113.30326 31791 ft 459 kts 202°
2026-05-07 13:31 23.28948 113.29159 30840 ft 478 kts 202°
2026-05-07 13:31 23.25744 113.27933 30126 ft 498 kts 202°
2026-05-07 13:31 23.22441 113.26672 29229 ft 505 kts 202°
2026-05-07 13:32 23.19125 113.25415 28469 ft 501 kts 202°
2026-05-07 13:32 23.15865 113.24181 27773 ft 495 kts 202°
2026-05-07 13:32 23.12627 113.22955 27097 ft 489 kts 202°
2026-05-07 13:32 23.09351 113.22083 26422 ft 487 kts 188°
2026-05-07 13:33 23.07107 113.22081 26002 ft 488 kts 176°
2026-05-07 13:33 23.03814 113.22984 25359 ft 490 kts 159°
2026-05-07 13:33 23.00872 113.24830 24738 ft 490 kts 144°
2026-05-07 13:33 22.98362 113.27317 24113 ft 490 kts 132°
2026-05-07 13:34 22.95986 113.31492 23231 ft 484 kts 117°
2026-05-07 13:34 22.93566 113.36924 22143 ft 477 kts 116°
2026-05-07 13:34 22.92103 113.40128 21528 ft 473 kts 117°
2026-05-07 13:35 22.90612 113.43289 20923 ft 468 kts 118°
2026-05-07 13:35 22.89115 113.46409 20322 ft 464 kts 118°
2026-05-07 13:35 22.87618 113.49495 19727 ft 461 kts 119°
2026-05-07 13:35 22.86079 113.52526 19114 ft 458 kts 120°
2026-05-07 13:36 22.84516 113.55520 18510 ft 450 kts 120°
2026-05-07 13:36 22.83017 113.58373 17863 ft 422 kts 120°
2026-05-07 13:36 22.81611 113.61053 17267 ft 398 kts 120°
2026-05-07 13:36 22.80282 113.63596 16747 ft 379 kts 120°
2026-05-07 13:37 22.78975 113.66101 16271 ft 387 kts 120°
2026-05-07 13:37 22.77626 113.68689 15775 ft 405 kts 120°
2026-05-07 13:37 22.76218 113.71393 15323 ft 416 kts 120°
2026-05-07 13:37 22.74787 113.74147 14675 ft 421 kts 120°
2026-05-07 13:38 22.73351 113.76910 14096 ft 420 kts 120°
2026-05-07 13:38 22.71935 113.79635 13718 ft 412 kts 121°
2026-05-07 13:38 22.70539 113.82317 13312 ft 404 kts 120°
2026-05-07 13:38 22.69182 113.84920 13208 ft 389 kts 121°
2026-05-07 13:39 22.67876 113.87427 13119 ft 376 kts 121°
2026-05-07 13:39 22.66619 113.89838 13031 ft 362 kts 121°
2026-05-07 13:39 22.65466 113.92201 12913 ft 347 kts 111°
2026-05-07 13:39 22.65055 113.94713 12826 ft 335 kts 88°
2026-05-07 13:40 22.65514 113.97132 12745 ft 323 kts 66°
2026-05-07 13:40 22.66641 113.99158 12655 ft 309 kts 46°
2026-05-07 13:40 22.68220 114.00629 12571 ft 293 kts 28°
2026-05-07 13:40 22.69956 114.01640 12431 ft 273 kts 24°
2026-05-07 13:41 22.71658 114.02385 12025 ft 256 kts
2026-05-07 13:41 22.73341 114.02173 11396 ft 241 kts 326°
2026-05-07 13:41 22.74501 114.00948 10738 ft 233 kts 294°
2026-05-07 13:41 22.74835 113.99270 10093 ft 230 kts 268°
2026-05-07 13:42 22.74920 113.97547 9482 ft 231 kts 278°
2026-05-07 13:42 22.75259 113.95825 9092 ft 234 kts 284°
2026-05-07 13:42 22.75719 113.94152 8830 ft 231 kts 287°
2026-05-07 13:42 22.76254 113.92519 8543 ft 229 kts 290°
2026-05-07 13:43 22.76836 113.90919 8230 ft 228 kts 291°
2026-05-07 13:43 22.77453 113.89337 7925 ft 228 kts 292°
2026-05-07 13:43 22.78095 113.87764 7630 ft 228 kts 293°
2026-05-07 13:43 22.78751 113.86205 7326 ft 227 kts 294°
2026-05-07 13:44 22.79416 113.84653 7045 ft 227 kts 294°
2026-05-07 13:44 22.80087 113.83110 6740 ft 226 kts 294°
2026-05-07 13:44 22.80761 113.81572 6468 ft 225 kts 294°
2026-05-07 13:44 22.81427 113.80062 6157 ft 225 kts 294°
2026-05-07 13:45 22.82105 113.78531 5853 ft 225 kts 295°
2026-05-07 13:45 22.82780 113.77008 5555 ft 224 kts 295°
2026-05-07 13:45 22.83455 113.75487 5278 ft 223 kts 295°
2026-05-07 13:45 22.84121 113.73974 4998 ft 221 kts 291°
2026-05-07 13:46 22.84343 113.72355 4524 ft 222 kts 257°
2026-05-07 13:46 22.83633 113.70916 4177 ft 218 kts 221°
2026-05-07 13:46 22.82308 113.70257 4040 ft 208 kts 184°
2026-05-07 13:46 22.80841 113.70481 4094 ft 220 kts 166°
2026-05-07 13:47 22.79409 113.70988 3978 ft 207 kts 161°
2026-05-07 13:47 22.78159 113.71524 3962 ft 183 kts 157°
2026-05-07 13:47 22.77035 113.72103 3571 ft 175 kts 154°
2026-05-07 13:47 22.75959 113.72693 2965 ft 173 kts 154°
2026-05-07 13:48 22.74882 113.73286 2331 ft 173 kts 154°
2026-05-07 13:48 22.73812 113.73880 1696 ft 171 kts 154°
2026-05-07 13:48 22.72791 113.74466 1480 ft 166 kts 154°
2026-05-07 13:48 22.71757 113.75071 1405 ft 171 kts 156°
2026-05-07 13:49 22.70855 113.75568 1264 ft 171 kts 157°
2026-05-07 13:49 22.69787 113.76151 1059 ft 174 kts 155°
2026-05-07 13:49 22.68728 113.76704 760 ft 163 kts 155°
2026-05-07 13:49 22.67764 113.77226 487 ft 149 kts 154°
2026-05-07 13:50 22.66850 113.77721 334 ft 147 kts 155°
2026-05-07 13:50 22.65942 113.78235 208 ft 147 kts 154°
2026-05-07 13:50 22.65019 113.78726 42 ft 144 kts 154°
2026-05-07 13:50 22.64207 113.79162 28 ft 112 kts 153°
2026-05-07 13:51 22.63677 113.79453 27 ft 59 kts 153°
2026-05-07 13:51 22.63409 113.79600 29 ft 39 kts 152°
2026-05-07 13:51 22.63250 113.79729 28 ft 19 kts 133°
2026-05-07 13:51 22.63173 113.79842 29 ft 19 kts 123°
2026-05-07 13:52 22.63208 113.79917 27 ft 14 kts
2026-05-07 13:52 22.63324 113.79867 27 ft 27 kts 332°
2026-05-07 13:52 22.63492 113.79773 27 ft 27 kts 333°
2026-05-07 13:52 22.63658 113.79682 27 ft 22 kts 333°
2026-05-07 13:53 22.63771 113.79701 27 ft 16 kts 17°
2026-05-07 13:53 22.63875 113.79670 27 ft 16 kts 333°
2026-05-07 13:53 22.63972 113.79616 27 ft 16 kts 333°
2026-05-07 13:53 22.64067 113.79566 27 ft 15 kts 344°
2026-05-07 13:54 22.64163 113.79592 27 ft 15 kts 40°
2026-05-07 13:54 22.64222 113.79685 27 ft 15 kts 64°
2026-05-07 13:54 22.64250 113.79722 27 ft 0 kts 33°